Wetterdaten: Freitag, 22.01.2021
Datum Zeit Temp. Aussen Temp. o. S. Temp +5cm Feuchte Auss Luftdruck Regen Sonnenschein Regendauer Solar Windben Empfang
22.01.2021 00:00 10,0 C 8,3 C 6,2 C 88 % 985,0 hPa 0,0 l/m 0 min 0 min 0 W/m 16,1 km/h (3 Bft) 100,00 %
22.01.2021 00:02 10,0 C 8,3 C 6,2 C 87 % 984,9 hPa 0,0 l/m 0 min 0 min 0 W/m 3,2 km/h (1 Bft) 95,00 %
22.01.2021 00:04 10,0 C 8,3 C 6,2 C 87 % 984,8 hPa 0,0 l/m 0 min 0 min 0 W/m 25,7 km/h (4 Bft) 95,74 %
22.01.2021 00:08 10,0 C 8,3 C 6,2 C 87 % 984,9 hPa 0,0 l/m 0 min 0 min 0 W/m 25,7 km/h (4 Bft) 97,85 %
22.01.2021 00:10 10,0 C 8,3 C 6,2 C 87 % 984,9 hPa 0,0 l/m 0 min 0 min 0 W/m 12,9 km/h (3 Bft) 97,87 %
22.01.2021 00:12 10,1 C 8,3 C 6,2 C 87 % 984,8 hPa 0,0 l/m 0 min 0 min 0 W/m 0,0 km/h (0 Bft) 95,74 %
22.01.2021 00:14 10,1 C 8,3 C 6,2 C 86 % 984,9 hPa 0,0 l/m 0 min 0 min 0 W/m 22,5 km/h (4 Bft) 97,87 %
22.01.2021 00:16 10,1 C 8,3 C 6,2 C 86 % 984,9 hPa 0,0 l/m 0 min 0 min 0 W/m 3,2 km/h (1 Bft) 97,87 %
22.01.2021 00:18 10,1 C 8,3 C 6,2 C 86 % 984,8 hPa 0,0 l/m 0 min 0 min 0 W/m 0,0 km/h (0 Bft) 93,48 %
22.01.2021 00:20 10,1 C 8,3 C 6,2 C 86 % 984,9 hPa 0,0 l/m 0 min 0 min 0 W/m 12,9 km/h (3 Bft) 95,74 %
22.01.2021 00:22 10,1 C 8,3 C 6,2 C 86 % 984,9 hPa 0,0 l/m 0 min 0 min 0 W/m 19,3 km/h (3 Bft) 97,87 %
22.01.2021 00:24 10,1 C 8,3 C 6,2 C 86 % 984,8 hPa 0,0 l/m 0 min 0 min 0 W/m 3,2 km/h (1 Bft) 97,87 %
22.01.2021 00:26 10,2 C 8,9 C 6,2 C 86 % 984,8 hPa 0,0 l/m 0 min 0 min 0 W/m 3,2 km/h (1 Bft) 97,87 %
22.01.2021 00:28 10,2 C 8,9 C 6,2 C 86 % 984,9 hPa 0,0 l/m 0 min 0 min 0 W/m 25,7 km/h (4 Bft) 97,87 %
22.01.2021 00:30 10,2 C 8,9 C 6,2 C 86 % 984,8 hPa 0,0 l/m 0 min 0 min 0 W/m 19,3 km/h (3 Bft) 97,83 %
22.01.2021 00:32 10,2 C 8,9 C 6,2 C 86 % 984,8 hPa 0,0 l/m 0 min 0 min 0 W/m 22,5 km/h (4 Bft) 97,87 %
22.01.2021 00:34 10,2 C 9,4 C 6,2 C 86 % 984,7 hPa 0,0 l/m 0 min 0 min 0 W/m 16,1 km/h (3 Bft) 93,62 %
22.01.2021 00:36 10,2 C 9,4 C 6,2 C 86 % 984,7 hPa 0,0 l/m 0 min 0 min 0 W/m 19,3 km/h (3 Bft) 97,87 %
22.01.2021 00:38 10,2 C 9,4 C 6,2 C 86 % 984,7 hPa 0,0 l/m 0 min 0 min 0 W/m 45,1 km/h (6 Bft) 97,87 %
22.01.2021 00:40 10,2 C 9,4 C 6,2 C 86 % 984,7 hPa 0,0 l/m 0 min 0 min 0 W/m 32,2 km/h (5 Bft) 97,87 %
22.01.2021 00:42 10,2 C 9,4 C 6,2 C 86 % 984,7 hPa 0,0 l/m 0 min 0 min 0 W/m 12,9 km/h (3 Bft) 97,83 %
22.01.2021 00:44 10,2 C 9,4 C 6,2 C 86 % 984,5 hPa 0,0 l/m 0 min 0 min 0 W/m 6,4 km/h (2 Bft) 93,62 %
22.01.2021 00:46 10,1 C 9,4 C 6,2 C 86 % 984,7 hPa 0,0 l/m 0 min 0 min 0 W/m 9,7 km/h (2 Bft) 97,87 %
22.01.2021 00:48 10,1 C 9,4 C 5,6 C 86 % 984,7 hPa 0,0 l/m 0 min 0 min 0 W/m 0,0 km/h (0 Bft) 97,87 %
22.01.2021 00:50 10,1 C 9,4 C 6,2 C 86 % 984,5 hPa 0,0 l/m 0 min 2 min 0 W/m 6,4 km/h (2 Bft) 97,87 %
22.01.2021 00:52 10,1 C 8,9 C 5,6 C 86 % 984,6 hPa 0,0 l/m 0 min 2 min 0 W/m 3,2 km/h (1 Bft) 97,87 %
22.01.2021 00:54 10,1 C 7,8 C 5,6 C 86 % 984,7 hPa 0,2 l/m 0 min 2 min 0 W/m 0,0 km/h (0 Bft) 97,83 %
22.01.2021 00:56 10,1 C 7,8 C 5,6 C 86 % 984,6 hPa 0,0 l/m 0 min 2 min 0 W/m 3,2 km/h (1 Bft) 100,00 %
22.01.2021 00:58 10,1 C 7,8 C 5,6 C 87 % 984,5 hPa 0,0 l/m 0 min 2 min 0 W/m 3,2 km/h (1 Bft) 97,87 %
22.01.2021 01:00 10,0 C 7,2 C 5,6 C 87 % 984,4 hPa 0,0 l/m 0 min 2 min 0 W/m 0,0 km/h (0 Bft) 95,74 %
22.01.2021 01:02 10,0 C 7,2 C 5,6 C 88 % 984,5 hPa 0,2 l/m 0 min 2 min 0 W/m 0,0 km/h (0 Bft) 97,87 %
22.01.2021 01:04 10,0 C 7,2 C 5,6 C 88 % 984,4 hPa 0,0 l/m 0 min 2 min 0 W/m 6,4 km/h (2 Bft) 97,87 %
22.01.2021 01:06 9,9 C 7,2 C 5,6 C 88 % 984,5 hPa 0,0 l/m 0 min 2 min 0 W/m 0,0 km/h (0 Bft) 97,83 %
22.01.2021 01:08 9,9 C 7,2 C 5,6 C 88 % 984,5 hPa 0,2 l/m 0 min 2 min 0 W/m 0,0 km/h (0 Bft) 97,87 %
22.01.2021 01:10 9,8 C 7,2 C 5,6 C 89 % 984,4 hPa 0,0 l/m 0 min 2 min 0 W/m 3,2 km/h (1 Bft) 97,87 %
22.01.2021 01:12 9,8 C 7,2 C 5,6 C 89 % 984,4 hPa 0,0 l/m 0 min 2 min 0 W/m 12,9 km/h (3 Bft) 97,87 %
22.01.2021 01:14 9,7 C 7,2 C 5,6 C 89 % 984,4 hPa 0,2 l/m 0 min 2 min 0 W/m 22,5 km/h (4 Bft) 95,74 %
22.01.2021 01:16 9,6 C 7,2 C 5,6 C 90 % 984,3 hPa 0,0 l/m 0 min 2 min 0 W/m 0,0 km/h (0 Bft) 97,87 %
22.01.2021 01:18 9,6 C 7,2 C 5,6 C 90 % 984,3 hPa 0,0 l/m 0 min 2 min 0 W/m 6,4 km/h (2 Bft) 95,65 %
22.01.2021 01:20 9,5 C 7,2 C 5,6 C 90 % 984,3 hPa 0,0 l/m 0 min 2 min 0 W/m 0,0 km/h (0 Bft) 95,74 %
22.01.2021 01:22 9,5 C 7,2 C 5,6 C 90 % 984,2 hPa 0,0 l/m 0 min 0 min 0 W/m 3,2 km/h (1 Bft) 95,74 %
22.01.2021 01:24 9,5 C 7,8 C 5,6 C 90 % 984,2 hPa 0,0 l/m 0 min 2 min 0 W/m 0,0 km/h (0 Bft) 95,74 %
22.01.2021 01:26 9,4 C 7,2 C 5,6 C 91 % 984,3 hPa 0,0 l/m 0 min 2 min 0 W/m 0,0 km/h (0 Bft) 97,87 %
22.01.2021 01:28 9,4 C 7,2 C 5,6 C 91 % 984,2 hPa 0,0 l/m 0 min 2 min 0 W/m 19,3 km/h (3 Bft) 97,87 %
22.01.2021 01:30 9,4 C 7,2 C 5,6 C 91 % 984,2 hPa 0,0 l/m 0 min 2 min 0 W/m 0,0 km/h (0 Bft) 97,83 %
22.01.2021 01:32 9,4 C 7,2 C 5,6 C 91 % 984,2 hPa 0,0 l/m 0 min 2 min 0 W/m 3,2 km/h (1 Bft) 100,00 %
22.01.2021 01:34 9,3 C 7,2 C 5,6 C 91 % 984,2 hPa 0,2 l/m 0 min 2 min 0 W/m 29,0 km/h (5 Bft) 100,00 %
22.01.2021 01:36 9,3 C 7,2 C 5,6 C 91 % 984,1 hPa 0,0 l/m 0 min 2 min 0 W/m 6,4 km/h (2 Bft) 97,87 %
22.01.2021 01:38 9,3 C 7,2 C 5,6 C 91 % 984,0 hPa 0,0 l/m 0 min 2 min 0 W/m 22,5 km/h (4 Bft) 100,00 %
22.01.2021 01:40 9,3 C 7,8 C 5,6 C 91 % 984,1 hPa 0,0 l/m 0 min 2 min 0 W/m 19,3 km/h (3 Bft) 100,00 %
22.01.2021 01:42 9,3 C 7,8 C 5,6 C 91 % 984,0 hPa 0,0 l/m 0 min 2 min 0 W/m 16,1 km/h (3 Bft) 97,83 %
22.01.2021 01:44 9,3 C 7,2 C 5,6 C 91 % 984,1 hPa 0,2 l/m 0 min 2 min 0 W/m 3,2 km/h (1 Bft) 97,87 %
22.01.2021 01:46 9,3 C 7,8 C 5,6 C 91 % 984,0 hPa 0,0 l/m 0 min 2 min 0 W/m 3,2 km/h (1 Bft) 100,00 %
22.01.2021 01:48 9,3 C 7,8 C 5,6 C 91 % 983,9 hPa 0,0 l/m 0 min 2 min 0 W/m 6,4 km/h (2 Bft) 100,00 %
22.01.2021 01:50 9,3 C 7,8 C 5,6 C 91 % 983,9 hPa 0,0 l/m 0 min 2 min 0 W/m 29,0 km/h (5 Bft) 100,00 %
22.01.2021 01:52 9,4 C 7,8 C 5,6 C 91 % 983,9 hPa 0,0 l/m 0 min 2 min 0 W/m 9,7 km/h (2 Bft) 97,83 %
22.01.2021 01:54 9,4 C 7,8 C 5,6 C 91 % 983,9 hPa 0,0 l/m 0 min 2 min 0 W/m 12,9 km/h (3 Bft) 100,00 %
22.01.2021 01:56 9,4 C 7,8 C 5,6 C 91 % 983,9 hPa 0,0 l/m 0 min 2 min 0 W/m 12,9 km/h (3 Bft) 100,00 %
22.01.2021 01:58 9,4 C 7,2 C 5,6 C 91 % 984,1 hPa 0,0 l/m 0 min 2 min 0 W/m 0,0 km/h (0 Bft) 97,87 %
22.01.2021 02:00 9,4 C 7,2 C 5,6 C 91 % 983,9 hPa 0,0 l/m 0 min 2 min 0 W/m 0,0 km/h (0 Bft) 100,00 %
22.01.2021 02:02 9,4 C 7,2 C 5,6 C 91 % 983,9 hPa 0,0 l/m 0 min 2 min 0 W/m 0,0 km/h (0 Bft) 100,00 %
22.01.2021 02:04 9,4 C 7,8 C 5,6 C 91 % 983,8 hPa 0,0 l/m 0 min 2 min 0 W/m 0,0 km/h (0 Bft) 100,00 %
22.01.2021 02:06 9,4 C 7,8 C 5,6 C 91 % 983,7 hPa 0,0 l/m 0 min 2 min 0 W/m 35,4 km/h (5 Bft) 95,74 %
22.01.2021 02:08 9,4 C 7,8 C 5,6 C 91 % 983,8 hPa 0,0 l/m 0 min 2 min 0 W/m 0,0 km/h (0 Bft) 100,00 %
22.01.2021 02:10 9,4 C 7,8 C 5,6 C 91 % 983,7 hPa 0,0 l/m 0 min 2 min 0 W/m 16,1 km/h (3 Bft) 100,00 %
22.01.2021 02:12 9,4 C 7,8 C 5,6 C 91 % 983,7 hPa 0,0 l/m 0 min 2 min 0 W/m 12,9 km/h (3 Bft) 100,00 %
22.01.2021 02:14 9,5 C 7,8 C 5,6 C 90 % 983,7 hPa 0,0 l/m 0 min 2 min 0 W/m 3,2 km/h (1 Bft) 97,87 %
22.01.2021 02:16 9,5 C 7,8 C 5,6 C 90 % 983,7 hPa 0,0 l/m 0 min 2 min 0 W/m 25,7 km/h (4 Bft) 97,14 %
22.01.2021 02:18 9,5 C 7,8 C 5,6 C 90 % 983,7 hPa 0,0 l/m 0 min 2 min 0 W/m 25,7 km/h (4 Bft) 96,61 %
22.01.2021 02:20 9,5 C 7,8 C 6,2 C 90 % 983,6 hPa 0,0 l/m 0 min 2 min 0 W/m 25,7 km/h (4 Bft) 95,74 %
22.01.2021 02:22 9,5 C 7,8 C 6,2 C 90 % 983,7 hPa 0,0 l/m 0 min 2 min 0 W/m 38,6 km/h (5 Bft) 97,87 %
22.01.2021 02:24 9,5 C 7,8 C 6,2 C 90 % 983,6 hPa 0,0 l/m 0 min 2 min 0 W/m 6,4 km/h (2 Bft) 95,65 %
22.01.2021 02:26 9,6 C 7,8 C 5,6 C 90 % 983,7 hPa 0,0 l/m 0 min 2 min 0 W/m 3,2 km/h (1 Bft) 97,87 %
22.01.2021 02:28 9,6 C 7,8 C 5,6 C 90 % 983,8 hPa 0,0 l/m 0 min 2 min 0 W/m 0,0 km/h (0 Bft) 97,87 %
22.01.2021 02:30 9,6 C 7,8 C 5,6 C 90 % 984,1 hPa 0,0 l/m 0 min 2 min 0 W/m 0,0 km/h (0 Bft) 100,00 %
22.01.2021 02:32 9,6 C 7,2 C 5,6 C 90 % 985,0 hPa 0,2 l/m 0 min 2 min 0 W/m 54,7 km/h (7 Bft) 95,74 %
22.01.2021 02:34 9,4 C 6,1 C 5,0 C 89 % 985,1 hPa 0,2 l/m 0 min 2 min 0 W/m 35,4 km/h (5 Bft) 93,62 %
22.01.2021 02:36 9,1 C 5,6 C 4,5 C 88 % 985,2 hPa 0,2 l/m 0 min 2 min 0 W/m 19,3 km/h (3 Bft) 98,28 %
22.01.2021 02:38 8,8 C 5,6 C 4,5 C 88 % 985,2 hPa 0,0 l/m 0 min 2 min 0 W/m 9,7 km/h (2 Bft) 95,74 %
22.01.2021 02:40 8,5 C 5,6 C 3,9 C 88 % 985,4 hPa 0,0 l/m 0 min 2 min 0 W/m 6,4 km/h (2 Bft) 95,74 %
22.01.2021 02:42 8,3 C 5,6 C 3,9 C 88 % 985,4 hPa 0,0 l/m 0 min 2 min 0 W/m 12,9 km/h (3 Bft) 95,74 %
22.01.2021 02:44 8,0 C 5,6 C 3,9 C 89 % 985,4 hPa 0,0 l/m 0 min 2 min 0 W/m 12,9 km/h (3 Bft) 94,29 %
22.01.2021 02:46 7,9 C 5,6 C 3,9 C 89 % 985,6 hPa 0,2 l/m 0 min 2 min 0 W/m 12,9 km/h (3 Bft) 94,92 %
22.01.2021 02:48 7,7 C 5,6 C 3,9 C 90 % 985,6 hPa 0,0 l/m 0 min 2 min 0 W/m 38,6 km/h (5 Bft) 95,65 %
22.01.2021 02:50 7,5 C 5,0 C 3,9 C 90 % 985,7 hPa 0,0 l/m 0 min 2 min 0 W/m 16,1 km/h (3 Bft) 94,44 %
22.01.2021 02:52 7,3 C 5,0 C 3,9 C 90 % 985,8 hPa 0,2 l/m 0 min 2 min 0 W/m 6,4 km/h (2 Bft) 94,12 %
22.01.2021 02:54 7,1 C 5,0 C 3,4 C 91 % 985,8 hPa 0,0 l/m 0 min 2 min 0 W/m 6,4 km/h (2 Bft) 95,74 %
22.01.2021 02:56 7,0 C 5,0 C 3,4 C 91 % 986,0 hPa 0,0 l/m 0 min 2 min 0 W/m 6,4 km/h (2 Bft) 95,74 %
22.01.2021 02:58 6,9 C 5,0 C 3,4 C 91 % 986,1 hPa 0,0 l/m 0 min 2 min 0 W/m 12,9 km/h (3 Bft) 93,62 %
22.01.2021 03:00 6,6 C 4,4 C 3,4 C 91 % 986,2 hPa 0,0 l/m 0 min 2 min 0 W/m 25,7 km/h (4 Bft) 95,74 %
22.01.2021 03:02 6,4 C 4,4 C 2,8 C 91 % 986,3 hPa 0,0 l/m 0 min 2 min 0 W/m 32,2 km/h (5 Bft) 95,74 %
22.01.2021 03:04 6,2 C 4,4 C 2,8 C 91 % 986,5 hPa 0,0 l/m 0 min 2 min 0 W/m 35,4 km/h (5 Bft) 95,65 %
22.01.2021 03:06 6,0 C 3,9 C 2,8 C 91 % 986,7 hPa 0,0 l/m 0 min 2 min 0 W/m 41,8 km/h (6 Bft) 95,74 %
22.01.2021 03:08 5,9 C 3,9 C 2,8 C 92 % 986,7 hPa 0,2 l/m 0 min 2 min 0 W/m 6,4 km/h (2 Bft) 95,74 %
22.01.2021 03:10 5,7 C 3,9 C 2,8 C 92 % 986,8 hPa 0,0 l/m 0 min 2 min 0 W/m 29,0 km/h (5 Bft) 95,74 %
22.01.2021 03:12 5,6 C 3,9 C 2,8 C 92 % 987,0 hPa 0,0 l/m 0 min 2 min 0 W/m 29,0 km/h (5 Bft) 95,74 %
22.01.2021 03:14 5,5 C 3,9 C 2,3 C 92 % 987,0 hPa 0,0 l/m 0 min 2 min 0 W/m 19,3 km/h (3 Bft) 93,48 %
22.01.2021 03:16 5,4 C 3,9 C 2,3 C 92 % 987,1 hPa 0,0 l/m 0 min 2 min 0 W/m 32,2 km/h (5 Bft) 95,74 %
22.01.2021 03:18 5,2 C 3,3 C 2,3 C 92 % 987,2 hPa 0,0 l/m 0 min 2 min 0 W/m 29,0 km/h (5 Bft) 93,62 %
22.01.2021 03:20 5,1 C 3,3 C 1,7 C 92 % 987,4 hPa 0,0 l/m 0 min 2 min 0 W/m 6,4 km/h (2 Bft) 97,87 %
22.01.2021 03:22 4,9 C 3,3 C 1,7 C 93 % 987,5 hPa 0,0 l/m 0 min 2 min 0 W/m 9,7 km/h (2 Bft) 95,74 %
22.01.2021 03:24 4,8 C 3,3 C 1,7 C 92 % 987,6 hPa 0,0 l/m 0 min 2 min 0 W/m 32,2 km/h (5 Bft) 97,87 %
22.01.2021 03:26 4,6 C 3,3 C 1,7 C 93 % 987,7 hPa 0,0 l/m 0 min 2 min 0 W/m 54,7 km/h (7 Bft) 97,83 %
22.01.2021 03:28 4,5 C 2,8 C 1,7 C 93 % 987,8 hPa 0,0 l/m 0 min 2 min 0 W/m 6,4 km/h (2 Bft) 97,87 %
22.01.2021 03:30 4,4 C 2,8 C 1,7 C 93 % 987,8 hPa 0,2 l/m 0 min 2 min 0 W/m 6,4 km/h (2 Bft) 95,74 %
22.01.2021 03:32 4,3 C 2,8 C 1,7 C 93 % 988,0 hPa 0,0 l/m 0 min 2 min 0 W/m 6,4 km/h (2 Bft) 87,23 %
22.01.2021 03:34 4,3 C 2,8 C 1,7 C 93 % 988,1 hPa 0,0 l/m 0 min 2 min 0 W/m 9,7 km/h (2 Bft) 63,04 %
22.01.2021 03:36 4,1 C 2,8 C 1,7 C 93 % 988,2 hPa 0,0 l/m 0 min 2 min 0 W/m 9,7 km/h (2 Bft) 97,87 %
22.01.2021 03:38 4,1 C 2,8 C 1,7 C 93 % 988,2 hPa 0,0 l/m 0 min 2 min 0 W/m 0,0 km/h (0 Bft) 100,00 %
22.01.2021 03:40 4,1 C 2,8 C 1,7 C 93 % 988,2 hPa 0,0 l/m 0 min 0 min 0 W/m 6,4 km/h (2 Bft) 100,00 %
22.01.2021 03:42 4,0 C 2,8 C 1,7 C 94 % 988,4 hPa 0,0 l/m 0 min 2 min 0 W/m 12,9 km/h (3 Bft) 97,87 %
22.01.2021 03:44 4,0 C 2,8 C 1,7 C 93 % 988,2 hPa 0,0 l/m 0 min 2 min 0 W/m 6,4 km/h (2 Bft) 97,87 %
22.01.2021 03:46 4,0 C 2,8 C 1,7 C 94 % 988,3 hPa 0,0 l/m 0 min 2 min 0 W/m 6,4 km/h (2 Bft) 91,49 %
22.01.2021 03:48 3,9 C 2,8 C 1,7 C 94 % 988,4 hPa 0,0 l/m 0 min 2 min 0 W/m 16,1 km/h (3 Bft) 97,87 %
22.01.2021 03:50 3,9 C 2,8 C 1,7 C 94 % 988,4 hPa 0,0 l/m 0 min 2 min 0 W/m 16,1 km/h (3 Bft) 95,65 %
22.01.2021 03:52 3,9 C 2,8 C 1,7 C 94 % 988,4 hPa 0,0 l/m 0 min 0 min 0 W/m 9,7 km/h (2 Bft) 95,74 %
22.01.2021 03:54 3,8 C 2,8 C 1,7 C 94 % 988,5 hPa 0,0 l/m 0 min 0 min 0 W/m 0,0 km/h (0 Bft) 93,62 %
22.01.2021 03:56 3,8 C 2,8 C 1,7 C 94 % 988,6 hPa 0,0 l/m 0 min 0 min 0 W/m 6,4 km/h (2 Bft) 95,74 %
22.01.2021 03:58 3,8 C 2,8 C 1,7 C 94 % 988,7 hPa 0,0 l/m 0 min 2 min 0 W/m 3,2 km/h (1 Bft) 95,74 %
22.01.2021 04:00 3,8 C 2,8 C 1,7 C 94 % 988,6 hPa 0,0 l/m 0 min 0 min 0 W/m 16,1 km/h (3 Bft) 95,74 %
22.01.2021 04:05 3,7 C 2,8 C 1,7 C 94 % 988,7 hPa 0,0 l/m 0 min 0 min 0 W/m 3,2 km/h (1 Bft) 94,29 %
22.01.2021 04:06 3,7 C 2,8 C 1,7 C 94 % 988,7 hPa 0,0 l/m 0 min 0 min 0 W/m 3,2 km/h (1 Bft) 95,65 %
22.01.2021 04:08 3,7 C 2,8 C 1,7 C 94 % 988,8 hPa 0,0 l/m 0 min 0 min 0 W/m 0,0 km/h (0 Bft) 97,87 %
22.01.2021 04:10 3,7 C 2,8 C 1,7 C 94 % 988,8 hPa 0,0 l/m 0 min 0 min 0 W/m 3,2 km/h (1 Bft) 95,74 %
22.01.2021 04:12 3,7 C 2,8 C 1,7 C 95 % 988,8 hPa 0,0 l/m 0 min 0 min 0 W/m 6,4 km/h (2 Bft) 95,74 %
22.01.2021 04:14 3,6 C 2,8 C 1,7 C 95 % 988,7 hPa 0,0 l/m 0 min 0 min 0 W/m 6,4 km/h (2 Bft) 97,83 %
22.01.2021 04:16 3,6 C 2,8 C 1,7 C 95 % 988,8 hPa 0,0 l/m 0 min 0 min 0 W/m 0,0 km/h (0 Bft) 97,87 %
22.01.2021 04:18 3,6 C 2,8 C 1,7 C 95 % 988,9 hPa 0,0 l/m 0 min 0 min 0 W/m 3,2 km/h (1 Bft) 97,87 %
22.01.2021 04:20 3,6 C 2,8 C 1,7 C 95 % 989,0 hPa 0,0 l/m 0 min 0 min 0 W/m 0,0 km/h (0 Bft) 97,87 %
22.01.2021 04:22 3,6 C 2,8 C 1,7 C 95 % 989,0 hPa 0,0 l/m 0 min 0 min 0 W/m 0,0 km/h (0 Bft) 95,74 %
22.01.2021 04:24 3,6 C 2,8 C 1,7 C 95 % 989,0 hPa 0,0 l/m 0 min 0 min 0 W/m 0,0 km/h (0 Bft) 97,87 %
22.01.2021 04:26 3,6 C 2,8 C 1,7 C 95 % 989,1 hPa 0,0 l/m 0 min 0 min 0 W/m 0,0 km/h (0 Bft) 97,83 %
22.01.2021 04:28 3,6 C 2,8 C 1,7 C 95 % 989,1 hPa 0,0 l/m 0 min 0 min 0 W/m 0,0 km/h (0 Bft) 95,74 %
22.01.2021 04:30 3,6 C 2,8 C 1,7 C 95 % 989,2 hPa 0,0 l/m 0 min 0 min 0 W/m 0,0 km/h (0 Bft) 95,74 %
22.01.2021 04:32 3,6 C 2,8 C 1,7 C 95 % 989,3 hPa 0,0 l/m 0 min 0 min 0 W/m 0,0 km/h (0 Bft) 95,74 %
22.01.2021 04:34 3,5 C 2,8 C 1,7 C 95 % 989,4 hPa 0,0 l/m 0 min 0 min 0 W/m 0,0 km/h (0 Bft) 95,74 %
22.01.2021 04:36 3,6 C 2,8 C 1,7 C 95 % 989,5 hPa 0,0 l/m 0 min 0 min 0 W/m 0,0 km/h (0 Bft) 97,87 %
22.01.2021 04:38 3,5 C 2,8 C 1,7 C 95 % 989,5 hPa 0,0 l/m 0 min 0 min 0 W/m 0,0 km/h (0 Bft) 97,83 %
22.01.2021 04:40 3,5 C 2,8 C 1,7 C 95 % 989,5 hPa 0,0 l/m 0 min 0 min 0 W/m 0,0 km/h (0 Bft) 97,87 %
22.01.2021 04:42 3,5 C 2,8 C 1,7 C 95 % 989,4 hPa 0,0 l/m 0 min 0 min 0 W/m 0,0 km/h (0 Bft) 100,00 %
22.01.2021 04:44 3,5 C 2,8 C 1,7 C 95 % 989,5 hPa 0,0 l/m 0 min 0 min 0 W/m 0,0 km/h (0 Bft) 100,00 %
22.01.2021 04:46 3,5 C 2,8 C 1,7 C 95 % 989,5 hPa 0,0 l/m 0 min 0 min 0 W/m 0,0 km/h (0 Bft) 100,00 %
22.01.2021 04:48 3,5 C 2,8 C 1,7 C 95 % 989,6 hPa 0,0 l/m 0 min 0 min 0 W/m 0,0 km/h (0 Bft) 100,00 %
22.01.2021 04:50 3,5 C 2,8 C 1,7 C 95 % 989,6 hPa 0,0 l/m 0 min 0 min 0 W/m 0,0 km/h (0 Bft) 100,00 %
22.01.2021 04:52 3,5 C 2,8 C 1,7 C 95 % 989,6 hPa 0,0 l/m 0 min 0 min 0 W/m 0,0 km/h (0 Bft) 97,87 %
22.01.2021 04:54 3,5 C 2,8 C 1,7 C 95 % 989,5 hPa 0,0 l/m 0 min 0 min 0 W/m 0,0 km/h (0 Bft) 100,00 %
22.01.2021 04:56 3,5 C 2,8 C 1,7 C 95 % 989,6 hPa 0,0 l/m 0 min 0 min 0 W/m 0,0 km/h (0 Bft) 100,00 %
22.01.2021 04:58 3,5 C 2,8 C 1,7 C 95 % 989,7 hPa 0,0 l/m 0 min 0 min 0 W/m 0,0 km/h (0 Bft) 97,87 %
22.01.2021 05:00 3,5 C 2,8 C 1,7 C 95 % 989,8 hPa 0,0 l/m 0 min 0 min 0 W/m 0,0 km/h (0 Bft) 100,00 %
22.01.2021 05:02 3,5 C 2,8 C 1,7 C 95 % 989,8 hPa 0,0 l/m 0 min 0 min 0 W/m 0,0 km/h (0 Bft) 97,87 %
22.01.2021 05:04 3,5 C 2,8 C 1,7 C 95 % 989,8 hPa 0,0 l/m 0 min 0 min 0 W/m 0,0 km/h (0 Bft) 100,00 %
22.01.2021 05:06 3,5 C 2,8 C 1,7 C 95 % 989,9 hPa 0,0 l/m 0 min 0 min 0 W/m 0,0 km/h (0 Bft) 97,87 %
22.01.2021 05:08 3,5 C 2,8 C 1,7 C 95 % 990,0 hPa 0,0 l/m 0 min 0 min 0 W/m 0,0 km/h (0 Bft) 97,87 %
22.01.2021 05:10 3,5 C 2,8 C 1,7 C 95 % 990,0 hPa 0,0 l/m 0 min 0 min 0 W/m 0,0 km/h (0 Bft) 97,87 %
22.01.2021 05:12 3,5 C 2,8 C 1,7 C 95 % 990,0 hPa 0,0 l/m 0 min 0 min 0 W/m 0,0 km/h (0 Bft) 97,83 %
22.01.2021 05:14 3,5 C 2,8 C 1,7 C 95 % 990,0 hPa 0,0 l/m 0 min 0 min 0 W/m 0,0 km/h (0 Bft) 97,87 %
22.01.2021 05:16 3,5 C 2,8 C 1,7 C 95 % 990,0 hPa 0,0 l/m 0 min 0 min 0 W/m 0,0 km/h (0 Bft) 97,87 %
22.01.2021 05:18 3,5 C 2,8 C 1,7 C 95 % 990,1 hPa 0,0 l/m 0 min 0 min 0 W/m 0,0 km/h (0 Bft) 97,87 %
22.01.2021 05:20 3,5 C 2,8 C 1,7 C 95 % 990,2 hPa 0,0 l/m 0 min 0 min 0 W/m 0,0 km/h (0 Bft) 97,87 %
22.01.2021 05:22 3,5 C 2,8 C 1,7 C 96 % 990,1 hPa 0,0 l/m 0 min 0 min 0 W/m 0,0 km/h (0 Bft) 97,87 %
22.01.2021 05:24 3,5 C 2,8 C 1,7 C 96 % 990,2 hPa 0,0 l/m 0 min 0 min 0 W/m 0,0 km/h (0 Bft) 95,65 %
22.01.2021 05:26 3,5 C 2,8 C 1,7 C 96 % 990,2 hPa 0,0 l/m 0 min 0 min 0 W/m 0,0 km/h (0 Bft) 95,74 %
22.01.2021 05:28 3,5 C 2,8 C 1,7 C 96 % 990,2 hPa 0,0 l/m 0 min 0 min 0 W/m 0,0 km/h (0 Bft) 97,87 %
22.01.2021 05:30 3,4 C 2,8 C 1,7 C 96 % 990,3 hPa 0,0 l/m 0 min 0 min 0 W/m 0,0 km/h (0 Bft) 97,87 %
22.01.2021 05:32 3,5 C 2,8 C 1,7 C 96 % 990,3 hPa 0,0 l/m 0 min 0 min 0 W/m 0,0 km/h (0 Bft) 97,87 %
22.01.2021 05:34 3,5 C 2,8 C 1,7 C 96 % 990,2 hPa 0,0 l/m 0 min 0 min 0 W/m 0,0 km/h (0 Bft) 95,74 %
22.01.2021 05:36 3,4 C 2,8 C 1,7 C 96 % 990,2 hPa 0,0 l/m 0 min 0 min 0 W/m 0,0 km/h (0 Bft) 95,65 %
22.01.2021 05:38 3,5 C 2,8 C 1,7 C 96 % 990,3 hPa 0,0 l/m 0 min 0 min 0 W/m 0,0 km/h (0 Bft) 97,87 %
22.01.2021 05:40 3,5 C 2,8 C 1,7 C 96 % 990,3 hPa 0,0 l/m 0 min 0 min 0 W/m 0,0 km/h (0 Bft) 97,87 %
22.01.2021 05:42 3,5 C 2,8 C 1,7 C 96 % 990,3 hPa 0,0 l/m 0 min 0 min 0 W/m 0,0 km/h (0 Bft) 97,87 %
22.01.2021 05:44 3,5 C 2,8 C 1,7 C 96 % 990,3 hPa 0,0 l/m 0 min 0 min 0 W/m 0,0 km/h (0 Bft) 95,74 %
22.01.2021 05:46 3,5 C 2,8 C 1,7 C 96 % 990,2 hPa 0,0 l/m 0 min 0 min 0 W/m 0,0 km/h (0 Bft) 95,74 %
22.01.2021 05:48 3,5 C 2,8 C 1,7 C 96 % 990,3 hPa 0,0 l/m 0 min 0 min 0 W/m 0,0 km/h (0 Bft) 97,83 %
22.01.2021 05:50 3,5 C 2,8 C 1,7 C 96 % 990,3 hPa 0,0 l/m 0 min 0 min 0 W/m 0,0 km/h (0 Bft) 100,00 %
22.01.2021 05:52 3,5 C 2,8 C 1,7 C 96 % 990,3 hPa 0,0 l/m 0 min 0 min 0 W/m 0,0 km/h (0 Bft) 100,00 %
22.01.2021 05:54 3,5 C 2,8 C 1,7 C 96 % 990,3 hPa 0,0 l/m 0 min 0 min 0 W/m 0,0 km/h (0 Bft) 97,87 %
22.01.2021 05:56 3,5 C 2,8 C 1,7 C 96 % 990,3 hPa 0,0 l/m 0 min 0 min 0 W/m 0,0 km/h (0 Bft) 100,00 %
22.01.2021 05:58 3,5 C 2,8 C 1,7 C 96 % 990,5 hPa 0,0 l/m 0 min 0 min 0 W/m 0,0 km/h (0 Bft) 100,00 %
22.01.2021 06:00 3,5 C 2,8 C 1,7 C 96 % 990,5 hPa 0,0 l/m 0 min 0 min 0 W/m 0,0 km/h (0 Bft) 100,00 %
22.01.2021 06:02 3,5 C 2,8 C 1,7 C 96 % 990,5 hPa 0,0 l/m 0 min 0 min 0 W/m 0,0 km/h (0 Bft) 97,87 %
22.01.2021 06:04 3,5 C 3,3 C 1,7 C 96 % 990,5 hPa 0,0 l/m 0 min 0 min 0 W/m 0,0 km/h (0 Bft) 100,00 %
22.01.2021 06:06 3,5 C 3,3 C 1,7 C 96 % 990,4 hPa 0,0 l/m 0 min 0 min 0 W/m 0,0 km/h (0 Bft) 100,00 %
22.01.2021 06:08 3,6 C 3,3 C 1,7 C 96 % 990,5 hPa 0,0 l/m 0 min 0 min 0 W/m 0,0 km/h (0 Bft) 100,00 %
22.01.2021 06:10 3,6 C 3,3 C 1,7 C 96 % 990,4 hPa 0,0 l/m 0 min 0 min 0 W/m 0,0 km/h (0 Bft) 100,00 %
22.01.2021 06:12 3,6 C 3,3 C 1,7 C 96 % 990,4 hPa 0,0 l/m 0 min 0 min 0 W/m 0,0 km/h (0 Bft) 100,00 %
22.01.2021 06:14 3,6 C 3,3 C 1,7 C 96 % 990,4 hPa 0,0 l/m 0 min 0 min 0 W/m 0,0 km/h (0 Bft) 100,00 %
22.01.2021 06:16 3,6 C 3,3 C 1,7 C 96 % 990,5 hPa 0,0 l/m 0 min 0 min 0 W/m 3,2 km/h (1 Bft) 97,87 %
22.01.2021 06:18 3,6 C 3,3 C 1,7 C 96 % 990,5 hPa 0,0 l/m 0 min 0 min 0 W/m 0,0 km/h (0 Bft) 100,00 %
22.01.2021 06:20 3,6 C 3,3 C 1,7 C 96 % 990,5 hPa 0,0 l/m 0 min 0 min 0 W/m 0,0 km/h (0 Bft) 100,00 %
22.01.2021 06:22 3,7 C 3,3 C 1,7 C 96 % 990,6 hPa 0,0 l/m 0 min 0 min 0 W/m 0,0 km/h (0 Bft) 97,87 %
22.01.2021 06:24 3,7 C 3,3 C 1,7 C 96 % 990,6 hPa 0,0 l/m 0 min 0 min 0 W/m 0,0 km/h (0 Bft) 97,83 %
22.01.2021 06:26 3,7 C 3,3 C 1,7 C 96 % 990,6 hPa 0,0 l/m 0 min 0 min 0 W/m 0,0 km/h (0 Bft) 100,00 %
22.01.2021 06:28 3,7 C 3,3 C 1,7 C 96 % 990,6 hPa 0,0 l/m 0 min 0 min 0 W/m 3,2 km/h (1 Bft) 82,98 %
22.01.2021 06:30 3,7 C 3,3 C 1,7 C 96 % 990,6 hPa 0,0 l/m 0 min 0 min 0 W/m 0,0 km/h (0 Bft) 69,23 %
22.01.2021 06:32 3,8 C 3,3 C 1,7 C 96 % 990,5 hPa 0,0 l/m 0 min 0 min 0 W/m 0,0 km/h (0 Bft) 100,00 %
22.01.2021 06:34 3,8 C 3,3 C 1,7 C 96 % 990,5 hPa 0,0 l/m 0 min 0 min 0 W/m 0,0 km/h (0 Bft) 100,00 %
22.01.2021 06:36 3,8 C 3,3 C 1,7 C 96 % 990,6 hPa 0,0 l/m 0 min 0 min 0 W/m 0,0 km/h (0 Bft) 100,00 %
22.01.2021 06:38 3,8 C 3,3 C 1,7 C 96 % 990,6 hPa 0,0 l/m 0 min 0 min 0 W/m 0,0 km/h (0 Bft) 100,00 %
22.01.2021 06:40 3,8 C 3,3 C 1,7 C 96 % 990,7 hPa 0,0 l/m 0 min 0 min 0 W/m 0,0 km/h (0 Bft) 100,00 %
22.01.2021 06:42 3,8 C 3,3 C 1,7 C 96 % 990,7 hPa 0,0 l/m 0 min 0 min 0 W/m 0,0 km/h (0 Bft) 95,74 %
22.01.2021 06:44 3,8 C 3,3 C 1,7 C 96 % 990,6 hPa 0,0 l/m 0 min 0 min 0 W/m 0,0 km/h (0 Bft) 97,87 %
22.01.2021 06:46 3,8 C 3,3 C 1,7 C 96 % 990,6 hPa 0,0 l/m 0 min 0 min 0 W/m 0,0 km/h (0 Bft) 100,00 %
22.01.2021 06:48 3,8 C 3,3 C 2,3 C 96 % 990,7 hPa 0,0 l/m 0 min 0 min 0 W/m 0,0 km/h (0 Bft) 97,87 %
22.01.2021 06:50 3,8 C 3,3 C 2,3 C 96 % 990,7 hPa 0,0 l/m 0 min 0 min 0 W/m 0,0 km/h (0 Bft) 97,87 %
22.01.2021 06:52 3,8 C 3,3 C 2,3 C 96 % 990,8 hPa 0,0 l/m 0 min 0 min 0 W/m 0,0 km/h (0 Bft) 97,87 %
22.01.2021 06:54 3,8 C 3,3 C 2,3 C 96 % 990,8 hPa 0,0 l/m 0 min 0 min 0 W/m 0,0 km/h (0 Bft) 97,87 %
22.01.2021 06:56 3,8 C 3,3 C 2,3 C 96 % 990,8 hPa 0,0 l/m 0 min 0 min 0 W/m 0,0 km/h (0 Bft) 95,74 %
22.01.2021 06:58 3,8 C 3,3 C 2,3 C 96 % 990,8 hPa 0,0 l/m 0 min 0 min 0 W/m 0,0 km/h (0 Bft) 97,87 %
22.01.2021 07:00 3,8 C 3,3 C 2,3 C 96 % 990,7 hPa 0,0 l/m 0 min 0 min 0 W/m 0,0 km/h (0 Bft) 97,83 %
22.01.2021 07:02 3,9 C 3,3 C 2,3 C 96 % 990,8 hPa 0,0 l/m 0 min 0 min 0 W/m 0,0 km/h (0 Bft) 97,87 %
22.01.2021 07:04 3,9 C 3,3 C 2,3 C 96 % 990,8 hPa 0,0 l/m 0 min 0 min 0 W/m 3,2 km/h (1 Bft) 93,62 %
22.01.2021 07:06 3,9 C 3,3 C 2,3 C 96 % 990,8 hPa 0,0 l/m 0 min 0 min 0 W/m 0,0 km/h (0 Bft) 93,62 %
22.01.2021 07:08 3,9 C 3,3 C 2,3 C 96 % 990,8 hPa 0,0 l/m 0 min 0 min 0 W/m 3,2 km/h (1 Bft) 97,87 %
22.01.2021 07:10 3,9 C 3,3 C 2,3 C 96 % 990,7 hPa 0,0 l/m 0 min 0 min 0 W/m 0,0 km/h (0 Bft) 95,65 %
22.01.2021 07:12 3,9 C 3,3 C 2,3 C 96 % 990,8 hPa 0,0 l/m 0 min 0 min 0 W/m 0,0 km/h (0 Bft) 95,74 %
22.01.2021 07:14 3,9 C 3,3 C 2,3 C 96 % 990,8 hPa 0,0 l/m 0 min 0 min 0 W/m 0,0 km/h (0 Bft) 97,87 %
22.01.2021 07:16 3,9 C 3,3 C 2,3 C 96 % 990,9 hPa 0,0 l/m 0 min 0 min 0 W/m 0,0 km/h (0 Bft) 97,87 %
22.01.2021 07:18 3,9 C 3,9 C 2,3 C 96 % 990,9 hPa 0,0 l/m 0 min 0 min 0 W/m 0,0 km/h (0 Bft) 97,87 %
22.01.2021 07:20 3,9 C 3,9 C 2,3 C 96 % 990,9 hPa 0,0 l/m 0 min 0 min 0 W/m 0,0 km/h (0 Bft) 97,87 %
22.01.2021 07:22 3,9 C 3,3 C 2,3 C 96 % 990,9 hPa 0,0 l/m 0 min 0 min 0 W/m 0,0 km/h (0 Bft) 95,65 %
22.01.2021 07:24 4,0 C 3,3 C 2,3 C 96 % 990,9 hPa 0,0 l/m 0 min 0 min 0 W/m 0,0 km/h (0 Bft) 97,87 %
22.01.2021 07:26 4,0 C 3,9 C 2,3 C 96 % 990,9 hPa 0,0 l/m 0 min 0 min 0 W/m 0,0 km/h (0 Bft) 97,87 %
22.01.2021 07:28 4,0 C 3,9 C 2,3 C 96 % 990,9 hPa 0,0 l/m 0 min 0 min 0 W/m 0,0 km/h (0 Bft) 95,24 %
22.01.2021 07:30 4,0 C 3,9 C 2,3 C 96 % 990,9 hPa 0,0 l/m 0 min 0 min 0 W/m 0,0 km/h (0 Bft) 97,87 %
22.01.2021 07:32 4,0 C 3,9 C 2,3 C 96 % 990,9 hPa 0,0 l/m 0 min 0 min 0 W/m 3,2 km/h (1 Bft) 98,00 %
22.01.2021 07:34 4,0 C 3,9 C 2,3 C 96 % 990,9 hPa 0,0 l/m 0 min 0 min 0 W/m 3,2 km/h (1 Bft) 97,87 %
22.01.2021 07:36 4,0 C 3,9 C 2,3 C 96 % 990,9 hPa 0,0 l/m 0 min 0 min 0 W/m 0,0 km/h (0 Bft) 95,83 %
22.01.2021 07:38 4,0 C 3,3 C 2,3 C 96 % 990,9 hPa 0,0 l/m 0 min 0 min 0 W/m 0,0 km/h (0 Bft) 93,62 %
22.01.2021 07:40 4,0 C 3,3 C 2,3 C 96 % 990,9 hPa 0,0 l/m 0 min 0 min 0 W/m 0,0 km/h (0 Bft) 97,92 %
22.01.2021 07:42 4,0 C 3,9 C 2,3 C 96 % 991,0 hPa 0,0 l/m 0 min 0 min 0 W/m 3,2 km/h (1 Bft) 95,83 %
22.01.2021 07:44 4,0 C 3,3 C 2,3 C 96 % 991,0 hPa 0,0 l/m 0 min 0 min 0 W/m 0,0 km/h (0 Bft) 97,83 %
22.01.2021 07:46 4,0 C 3,9 C 2,3 C 96 % 991,0 hPa 0,0 l/m 0 min 0 min 0 W/m 0,0 km/h (0 Bft) 97,92 %
22.01.2021 07:48 4,0 C 3,9 C 2,3 C 96 % 991,1 hPa 0,0 l/m 0 min 0 min 0 W/m 0,0 km/h (0 Bft) 95,74 %
22.01.2021 07:50 4,0 C 3,9 C 2,3 C 96 % 991,1 hPa 0,0 l/m 0 min 0 min 0 W/m 0,0 km/h (0 Bft) 97,87 %
22.01.2021 07:52 4,0 C 3,9 C 2,3 C 96 % 991,1 hPa 0,0 l/m 0 min 0 min 0 W/m 0,0 km/h (0 Bft) 93,62 %
22.01.2021 07:54 4,0 C 3,9 C 2,3 C 96 % 991,2 hPa 0,0 l/m 0 min 0 min 0 W/m 0,0 km/h (0 Bft) 97,14 %
22.01.2021 07:56 4,0 C 3,9 C 2,3 C 95 % 991,2 hPa 0,0 l/m 0 min 0 min 0 W/m 0,0 km/h (0 Bft) 93,62 %
22.01.2021 07:58 4,0 C 3,9 C 2,3 C 95 % 991,2 hPa 0,0 l/m 0 min 0 min 0 W/m 0,0 km/h (0 Bft) 97,87 %
22.01.2021 08:00 4,0 C 3,9 C 2,3 C 95 % 991,2 hPa 0,0 l/m 0 min 0 min 0 W/m 3,2 km/h (1 Bft) 97,83 %
22.01.2021 08:02 4,0 C 3,9 C 2,3 C 95 % 991,2 hPa 0,0 l/m 0 min 0 min 0 W/m 0,0 km/h (0 Bft) 97,87 %
22.01.2021 08:04 4,1 C 3,9 C 2,3 C 95 % 991,2 hPa 0,0 l/m 0 min 0 min 0 W/m 0,0 km/h (0 Bft) 95,74 %
22.01.2021 08:06 4,1 C 3,9 C 2,3 C 95 % 991,2 hPa 0,0 l/m 0 min 0 min 0 W/m 0,0 km/h (0 Bft) 98,18 %
22.01.2021 08:08 4,1 C 3,9 C 2,3 C 95 % 991,3 hPa 0,0 l/m 0 min 0 min 0 W/m 0,0 km/h (0 Bft) 95,65 %
22.01.2021 08:10 4,1 C 3,9 C 2,3 C 95 % 991,4 hPa 0,0 l/m 0 min 0 min 0 W/m 0,0 km/h (0 Bft) 95,74 %
22.01.2021 08:12 4,1 C 3,9 C 2,3 C 95 % 991,4 hPa 0,0 l/m 0 min 0 min 0 W/m 0,0 km/h (0 Bft) 97,87 %
22.01.2021 08:14 4,1 C 3,9 C 2,3 C 95 % 991,4 hPa 0,0 l/m 0 min 0 min 0 W/m 3,2 km/h (1 Bft) 97,87 %
22.01.2021 08:16 4,1 C 3,9 C 2,3 C 95 % 991,4 hPa 0,0 l/m 0 min 0 min 0 W/m 0,0 km/h (0 Bft) 100,00 %
22.01.2021 08:18 4,1 C 3,9 C 2,3 C 95 % 991,5 hPa 0,0 l/m 0 min 0 min 0 W/m 6,4 km/h (2 Bft) 95,74 %
22.01.2021 08:20 4,1 C 3,9 C 2,3 C 95 % 991,6 hPa 0,0 l/m 0 min 0 min 0 W/m 0,0 km/h (0 Bft) 97,83 %
22.01.2021 08:22 4,2 C 3,9 C 2,3 C 95 % 991,6 hPa 0,0 l/m 0 min 0 min 0 W/m 0,0 km/h (0 Bft) 97,87 %
22.01.2021 08:24 4,2 C 3,9 C 2,3 C 95 % 991,6 hPa 0,0 l/m 0 min 0 min 0 W/m 0,0 km/h (0 Bft) 97,87 %
22.01.2021 08:26 4,2 C 3,9 C 2,3 C 95 % 991,6 hPa 0,0 l/m 0 min 0 min 0 W/m 0,0 km/h (0 Bft) 100,00 %
22.01.2021 08:28 4,2 C 3,9 C 2,3 C 95 % 991,7 hPa 0,0 l/m 0 min 0 min 0 W/m 0,0 km/h (0 Bft) 100,00 %
22.01.2021 08:30 4,2 C 3,9 C 2,3 C 95 % 991,7 hPa 0,0 l/m 0 min 0 min 0 W/m 6,4 km/h (2 Bft) 100,00 %
22.01.2021 08:32 4,2 C 3,9 C 2,3 C 95 % 991,7 hPa 0,0 l/m 0 min 0 min 0 W/m 3,2 km/h (1 Bft) 97,83 %
22.01.2021 08:34 4,3 C 3,9 C 2,3 C 95 % 991,7 hPa 0,0 l/m 0 min 0 min 0 W/m 0,0 km/h (0 Bft) 97,87 %
22.01.2021 08:36 4,3 C 3,9 C 2,3 C 95 % 991,6 hPa 0,0 l/m 0 min 0 min 0 W/m 0,0 km/h (0 Bft) 100,00 %
22.01.2021 08:38 4,3 C 3,9 C 2,3 C 95 % 991,7 hPa 0,0 l/m 0 min 0 min 0 W/m 0,0 km/h (0 Bft) 100,00 %
22.01.2021 08:40 4,3 C 3,9 C 2,3 C 95 % 991,7 hPa 0,0 l/m 0 min 0 min 0 W/m 0,0 km/h (0 Bft) 97,87 %
22.01.2021 08:42 4,3 C 3,9 C 2,3 C 95 % 991,7 hPa 0,0 l/m 0 min 0 min 0 W/m 3,2 km/h (1 Bft) 97,87 %
22.01.2021 08:44 4,3 C 3,9 C 2,3 C 95 % 991,8 hPa 0,0 l/m 0 min 0 min 5 W/m 0,0 km/h (0 Bft) 100,00 %
22.01.2021 08:46 4,3 C 3,9 C 2,8 C 95 % 991,8 hPa 0,0 l/m 0 min 0 min 5 W/m 0,0 km/h (0 Bft) 100,00 %
22.01.2021 08:48 4,3 C 4,4 C 2,8 C 95 % 991,8 hPa 0,0 l/m 0 min 0 min 5 W/m 0,0 km/h (0 Bft) 97,87 %
22.01.2021 08:50 4,3 C 4,4 C 2,8 C 95 % 991,8 hPa 0,0 l/m 0 min 0 min 7 W/m 0,0 km/h (0 Bft) 100,00 %
22.01.2021 08:52 4,4 C 4,4 C 2,8 C 95 % 991,8 hPa 0,0 l/m 0 min 0 min 9 W/m 0,0 km/h (0 Bft) 95,74 %
22.01.2021 08:54 4,4 C 3,9 C 2,8 C 95 % 991,9 hPa 0,0 l/m 0 min 0 min 10 W/m 0,0 km/h (0 Bft) 100,00 %
22.01.2021 08:56 4,4 C 3,9 C 2,8 C 95 % 991,9 hPa 0,0 l/m 0 min 0 min 11 W/m 0,0 km/h (0 Bft) 95,65 %
22.01.2021 08:58 4,4 C 3,9 C 2,8 C 95 % 991,9 hPa 0,0 l/m 0 min 0 min 12 W/m 0,0 km/h (0 Bft) 100,00 %
22.01.2021 09:00 4,4 C 3,9 C 2,8 C 95 % 991,9 hPa 0,0 l/m 0 min 0 min 15 W/m 0,0 km/h (0 Bft) 95,74 %
22.01.2021 09:02 4,4 C 3,9 C 2,8 C 95 % 992,0 hPa 0,0 l/m 0 min 0 min 18 W/m 6,4 km/h (2 Bft) 97,87 %
22.01.2021 09:04 4,4 C 3,9 C 2,8 C 95 % 991,9 hPa 0,0 l/m 0 min 0 min 20 W/m 0,0 km/h (0 Bft) 97,87 %
22.01.2021 09:06 4,4 C 3,9 C 2,8 C 95 % 992,1 hPa 0,0 l/m 0 min 0 min 21 W/m 0,0 km/h (0 Bft) 95,74 %
22.01.2021 09:08 4,4 C 3,9 C 2,8 C 95 % 992,1 hPa 0,0 l/m 0 min 0 min 23 W/m 0,0 km/h (0 Bft) 100,00 %
22.01.2021 09:10 4,4 C 3,9 C 2,8 C 95 % 992,1 hPa 0,0 l/m 0 min 0 min 23 W/m 0,0 km/h (0 Bft) 97,87 %
22.01.2021 09:12 4,4 C 3,9 C 2,8 C 95 % 992,1 hPa 0,0 l/m 0 min 0 min 23 W/m 0,0 km/h (0 Bft) 95,74 %
22.01.2021 09:14 4,4 C 3,9 C 2,8 C 95 % 992,2 hPa 0,0 l/m 0 min 0 min 21 W/m 3,2 km/h (1 Bft) 100,00 %
22.01.2021 09:16 4,4 C 3,9 C 2,8 C 95 % 992,2 hPa 0,0 l/m 0 min 0 min 21 W/m 3,2 km/h (1 Bft) 97,87 %
22.01.2021 09:18 4,4 C 3,9 C 2,8 C 95 % 992,2 hPa 0,0 l/m 0 min 0 min 23 W/m 0,0 km/h (0 Bft) 100,00 %
22.01.2021 09:20 4,4 C 4,4 C 2,8 C 95 % 992,3 hPa 0,0 l/m 0 min 0 min 24 W/m 0,0 km/h (0 Bft) 100,00 %
22.01.2021 09:22 4,4 C 4,4 C 2,8 C 95 % 992,3 hPa 0,0 l/m 0 min 0 min 27 W/m 0,0 km/h (0 Bft) 100,00 %
22.01.2021 09:24 4,4 C 4,4 C 2,8 C 95 % 992,3 hPa 0,0 l/m 0 min 0 min 30 W/m 0,0 km/h (0 Bft) 100,00 %
22.01.2021 09:26 4,4 C 4,4 C 2,8 C 95 % 992,3 hPa 0,0 l/m 0 min 0 min 33 W/m 0,0 km/h (0 Bft) 97,87 %
22.01.2021 09:28 4,5 C 4,4 C 2,8 C 95 % 992,4 hPa 0,0 l/m 0 min 0 min 36 W/m 0,0 km/h (0 Bft) 97,87 %
22.01.2021 09:30 4,5 C 4,4 C 2,8 C 95 % 992,3 hPa 0,0 l/m 0 min 0 min 39 W/m 0,0 km/h (0 Bft) 95,65 %
22.01.2021 09:32 4,5 C 4,4 C 3,4 C 94 % 992,3 hPa 0,0 l/m 0 min 0 min 40 W/m 0,0 km/h (0 Bft) 100,00 %
22.01.2021 09:34 4,5 C 4,4 C 3,4 C 94 % 992,4 hPa 0,0 l/m 0 min 0 min 43 W/m 0,0 km/h (0 Bft) 100,00 %
22.01.2021 09:36 4,5 C 4,4 C 3,4 C 94 % 992,4 hPa 0,0 l/m 0 min 0 min 44 W/m 0,0 km/h (0 Bft) 100,00 %
22.01.2021 09:40 4,5 C 4,4 C 3,4 C 94 % 992,4 hPa 0,0 l/m 0 min 0 min 46 W/m 3,2 km/h (1 Bft) 100,00 %
22.01.2021 09:46 4,5 C 4,4 C 3,4 C 94 % 992,4 hPa 0,0 l/m 0 min 0 min 47 W/m 0,0 km/h (0 Bft) 98,04 %
22.01.2021 09:48 4,6 C 4,4 C 3,4 C 94 % 992,5 hPa 0,0 l/m 0 min 0 min 47 W/m 0,0 km/h (0 Bft) 95,74 %
22.01.2021 09:50 4,6 C 4,4 C 3,4 C 94 % 992,5 hPa 0,0 l/m 0 min 0 min 49 W/m 0,0 km/h (0 Bft) 97,87 %
22.01.2021 09:52 4,6 C 4,4 C 3,4 C 94 % 992,5 hPa 0,0 l/m 0 min 0 min 53 W/m 3,2 km/h (1 Bft) 95,74 %
22.01.2021 09:54 4,6 C 4,4 C 3,4 C 94 % 992,5 hPa 0,0 l/m 0 min 0 min 59 W/m 3,2 km/h (1 Bft) 95,65 %
22.01.2021 09:56 4,6 C 4,4 C 3,4 C 94 % 992,5 hPa 0,0 l/m 0 min 0 min 60 W/m 0,0 km/h (0 Bft) 93,62 %
22.01.2021 09:58 4,6 C 4,4 C 3,4 C 94 % 992,5 hPa 0,0 l/m 0 min 0 min 61 W/m 0,0 km/h (0 Bft) 95,74 %
22.01.2021 10:00 4,6 C 4,4 C 3,4 C 94 % 992,5 hPa 0,0 l/m 0 min 0 min 61 W/m 0,0 km/h (0 Bft) 93,62 %
22.01.2021 10:02 4,7 C 4,4 C 3,4 C 94 % 992,5 hPa 0,0 l/m 0 min 0 min 58 W/m 0,0 km/h (0 Bft) 95,74 %
22.01.2021 10:04 4,7 C 4,4 C 3,4 C 94 % 992,6 hPa 0,0 l/m 0 min 0 min 60 W/m 0,0 km/h (0 Bft) 91,49 %
22.01.2021 10:06 4,7 C 4,4 C 3,4 C 94 % 992,6 hPa 0,0 l/m 0 min 0 min 62 W/m 0,0 km/h (0 Bft) 89,36 %
22.01.2021 10:08 4,7 C 4,4 C 3,4 C 94 % 992,6 hPa 0,0 l/m 0 min 0 min 71 W/m 0,0 km/h (0 Bft) 95,74 %
22.01.2021 10:10 4,7 C 4,4 C 3,4 C 94 % 992,6 hPa 0,0 l/m 0 min 0 min 78 W/m 0,0 km/h (0 Bft) 91,30 %
22.01.2021 10:12 4,8 C 5,0 C 3,4 C 94 % 992,6 hPa 0,0 l/m 0 min 0 min 76 W/m 0,0 km/h (0 Bft) 93,62 %
22.01.2021 10:14 4,8 C 5,0 C 3,4 C 94 % 992,6 hPa 0,0 l/m 0 min 0 min 71 W/m 0,0 km/h (0 Bft) 89,36 %
22.01.2021 10:16 4,8 C 5,0 C 3,4 C 94 % 992,7 hPa 0,0 l/m 0 min 0 min 68 W/m 0,0 km/h (0 Bft) 89,36 %
22.01.2021 10:18 4,8 C 4,4 C 3,4 C 94 % 992,7 hPa 0,0 l/m 0 min 0 min 67 W/m 0,0 km/h (0 Bft) 93,62 %
22.01.2021 10:20 4,8 C 4,4 C 3,4 C 94 % 992,7 hPa 0,0 l/m 0 min 0 min 67 W/m 0,0 km/h (0 Bft) 93,62 %
22.01.2021 10:22 4,9 C 4,4 C 3,4 C 94 % 992,7 hPa 0,0 l/m 0 min 0 min 67 W/m 0,0 km/h (0 Bft) 93,48 %
22.01.2021 10:24 4,9 C 4,4 C 3,4 C 94 % 992,8 hPa 0,0 l/m 0 min 0 min 65 W/m 0,0 km/h (0 Bft) 89,36 %
22.01.2021 10:26 4,9 C 5,0 C 3,4 C 94 % 992,9 hPa 0,0 l/m 0 min 0 min 67 W/m 0,0 km/h (0 Bft) 87,23 %
22.01.2021 10:28 4,9 C 5,0 C 3,9 C 93 % 992,9 hPa 0,0 l/m 0 min 0 min 70 W/m 3,2 km/h (1 Bft) 91,49 %
22.01.2021 10:30 4,9 C 5,0 C 3,9 C 93 % 992,9 hPa 0,0 l/m 0 min 0 min 78 W/m 0,0 km/h (0 Bft) 91,49 %
22.01.2021 10:32 4,9 C 5,0 C 3,9 C 93 % 993,0 hPa 0,0 l/m 0 min 0 min 82 W/m 0,0 km/h (0 Bft) 93,62 %
22.01.2021 10:34 4,9 C 5,0 C 3,9 C 93 % 993,0 hPa 0,0 l/m 0 min 0 min 82 W/m 0,0 km/h (0 Bft) 95,65 %
22.01.2021 10:36 5,0 C 5,0 C 3,9 C 93 % 993,1 hPa 0,0 l/m 0 min 0 min 80 W/m 3,2 km/h (1 Bft) 93,62 %
22.01.2021 10:38 5,0 C 5,0 C 3,9 C 93 % 993,1 hPa 0,0 l/m 0 min 0 min 80 W/m 0,0 km/h (0 Bft) 93,62 %
22.01.2021 10:40 5,0 C 5,0 C 3,9 C 93 % 993,2 hPa 0,0 l/m 0 min 0 min 78 W/m 0,0 km/h (0 Bft) 93,62 %
22.01.2021 10:42 5,0 C 5,0 C 3,9 C 93 % 993,2 hPa 0,0 l/m 0 min 0 min 82 W/m 0,0 km/h (0 Bft) 89,36 %
22.01.2021 10:44 5,0 C 5,0 C 3,9 C 93 % 993,2 hPa 0,0 l/m 0 min 0 min 92 W/m 0,0 km/h (0 Bft) 95,74 %
22.01.2021 10:46 5,0 C 5,0 C 3,9 C 93 % 993,1 hPa 0,0 l/m 0 min 0 min 98 W/m 0,0 km/h (0 Bft) 91,30 %
22.01.2021 10:48 5,1 C 5,0 C 3,9 C 93 % 993,2 hPa 0,0 l/m 0 min 0 min 98 W/m 0,0 km/h (0 Bft) 95,74 %
22.01.2021 10:50 5,1 C 5,0 C 3,9 C 93 % 993,3 hPa 0,0 l/m 0 min 0 min 95 W/m 3,2 km/h (1 Bft) 91,49 %
22.01.2021 10:52 5,1 C 5,0 C 3,9 C 93 % 993,3 hPa 0,0 l/m 0 min 0 min 96 W/m 3,2 km/h (1 Bft) 89,36 %
22.01.2021 10:54 5,1 C 5,0 C 3,9 C 93 % 993,4 hPa 0,0 l/m 0 min 0 min 94 W/m 0,0 km/h (0 Bft) 95,74 %
22.01.2021 10:56 5,1 C 5,0 C 3,9 C 93 % 993,4 hPa 0,0 l/m 0 min 0 min 90 W/m 6,4 km/h (2 Bft) 95,65 %
22.01.2021 10:58 5,1 C 5,0 C 3,9 C 93 % 993,5 hPa 0,0 l/m 0 min 0 min 88 W/m 19,3 km/h (3 Bft) 93,62 %
22.01.2021 11:00 5,2 C 5,0 C 3,9 C 93 % 993,5 hPa 0,0 l/m 0 min 0 min 93 W/m 3,2 km/h (1 Bft) 95,74 %
22.01.2021 11:02 5,2 C 5,0 C 3,9 C 93 % 993,5 hPa 0,0 l/m 0 min 0 min 88 W/m 3,2 km/h (1 Bft) 95,74 %
22.01.2021 11:04 5,2 C 5,0 C 3,9 C 93 % 993,5 hPa 0,0 l/m 0 min 0 min 90 W/m 0,0 km/h (0 Bft) 93,62 %
22.01.2021 11:06 5,3 C 5,0 C 3,9 C 93 % 993,5 hPa 0,0 l/m 0 min 0 min 94 W/m 6,4 km/h (2 Bft) 93,62 %
22.01.2021 11:08 5,3 C 5,0 C 3,9 C 92 % 993,5 hPa 0,0 l/m 0 min 0 min 98 W/m 6,4 km/h (2 Bft) 93,48 %
22.01.2021 11:10 5,3 C 5,0 C 4,5 C 92 % 993,6 hPa 0,0 l/m 0 min 0 min 114 W/m 0,0 km/h (0 Bft) 97,87 %
22.01.2021 11:12 5,3 C 5,0 C 4,5 C 93 % 993,6 hPa 0,0 l/m 0 min 0 min 120 W/m 6,4 km/h (2 Bft) 95,74 %
22.01.2021 11:14 5,3 C 5,0 C 4,5 C 92 % 993,6 hPa 0,0 l/m 0 min 0 min 118 W/m 12,9 km/h (3 Bft) 97,87 %
22.01.2021 11:16 5,3 C 5,0 C 4,5 C 92 % 993,7 hPa 0,0 l/m 0 min 0 min 107 W/m 6,4 km/h (2 Bft) 97,83 %
22.01.2021 11:18 5,4 C 5,6 C 4,5 C 92 % 993,7 hPa 0,0 l/m 0 min 0 min 116 W/m 0,0 km/h (0 Bft) 97,87 %
22.01.2021 11:20 5,4 C 5,6 C 4,5 C 92 % 993,7 hPa 0,0 l/m 0 min 0 min 129 W/m 3,2 km/h (1 Bft) 95,74 %
22.01.2021 11:22 5,4 C 5,6 C 4,5 C 92 % 993,6 hPa 0,0 l/m 0 min 0 min 133 W/m 3,2 km/h (1 Bft) 97,87 %
22.01.2021 11:24 5,4 C 5,6 C 4,5 C 92 % 993,7 hPa 0,0 l/m 0 min 0 min 126 W/m 3,2 km/h (1 Bft) 97,87 %
22.01.2021 11:26 5,4 C 5,6 C 4,5 C 92 % 993,6 hPa 0,0 l/m 0 min 0 min 122 W/m 3,2 km/h (1 Bft) 97,87 %
22.01.2021 11:28 5,5 C 5,6 C 4,5 C 92 % 993,7 hPa 0,0 l/m 0 min 0 min 126 W/m 29,0 km/h (5 Bft) 100,00 %
22.01.2021 11:30 5,5 C 5,6 C 4,5 C 92 % 993,7 hPa 0,0 l/m 0 min 0 min 126 W/m 0,0 km/h (0 Bft) 95,74 %
22.01.2021 11:32 5,5 C 5,6 C 4,5 C 92 % 993,7 hPa 0,0 l/m 0 min 0 min 116 W/m 9,7 km/h (2 Bft) 100,00 %
22.01.2021 11:34 5,5 C 5,6 C 4,5 C 92 % 993,7 hPa 0,0 l/m 0 min 0 min 121 W/m 0,0 km/h (0 Bft) 100,00 %
22.01.2021 11:36 5,5 C 5,6 C 4,5 C 92 % 993,7 hPa 0,0 l/m 0 min 0 min 106 W/m 3,2 km/h (1 Bft) 100,00 %
22.01.2021 11:38 5,6 C 5,6 C 4,5 C 92 % 993,8 hPa 0,0 l/m 0 min 0 min 93 W/m 0,0 km/h (0 Bft) 100,00 %
22.01.2021 11:40 5,6 C 5,6 C 4,5 C 92 % 993,9 hPa 0,0 l/m 0 min 0 min 85 W/m 0,0 km/h (0 Bft) 97,83 %
22.01.2021 11:42 5,6 C 5,6 C 4,5 C 92 % 993,9 hPa 0,0 l/m 0 min 0 min 99 W/m 3,2 km/h (1 Bft) 100,00 %
22.01.2021 11:44 5,6 C 5,6 C 4,5 C 92 % 993,9 hPa 0,0 l/m 0 min 0 min 117 W/m 3,2 km/h (1 Bft) 100,00 %
22.01.2021 11:46 5,6 C 5,6 C 4,5 C 92 % 993,9 hPa 0,0 l/m 0 min 0 min 108 W/m 3,2 km/h (1 Bft) 100,00 %
22.01.2021 11:48 5,6 C 5,6 C 4,5 C 92 % 993,8 hPa 0,0 l/m 0 min 0 min 91 W/m 0,0 km/h (0 Bft) 97,87 %
22.01.2021 11:50 5,6 C 5,6 C 4,5 C 92 % 993,8 hPa 0,0 l/m 0 min 0 min 65 W/m 0,0 km/h (0 Bft) 97,87 %
22.01.2021 11:52 5,7 C 5,6 C 4,5 C 92 % 993,8 hPa 0,0 l/m 0 min 0 min 80 W/m 3,2 km/h (1 Bft) 100,00 %
22.01.2021 11:54 5,7 C 5,6 C 4,5 C 92 % 993,9 hPa 0,0 l/m 0 min 0 min 83 W/m 3,2 km/h (1 Bft) 100,00 %
22.01.2021 11:56 5,7 C 5,6 C 4,5 C 92 % 993,9 hPa 0,0 l/m 0 min 0 min 76 W/m 0,0 km/h (0 Bft) 97,87 %
22.01.2021 11:58 5,8 C 5,6 C 4,5 C 92 % 993,9 hPa 0,0 l/m 0 min 0 min 78 W/m 6,4 km/h (2 Bft) 97,87 %
22.01.2021 12:00 5,8 C 5,6 C 4,5 C 91 % 993,9 hPa 0,0 l/m 0 min 0 min 66 W/m 0,0 km/h (0 Bft) 100,00 %
22.01.2021 12:02 5,8 C 5,6 C 4,5 C 91 % 994,0 hPa 0,0 l/m 0 min 0 min 85 W/m 3,2 km/h (1 Bft) 97,87 %
22.01.2021 12:04 5,8 C 5,6 C 4,5 C 91 % 994,0 hPa 0,0 l/m 0 min 0 min 81 W/m 3,2 km/h (1 Bft) 97,83 %
22.01.2021 12:08 5,8 C 5,6 C 4,5 C 91 % 994,0 hPa 0,0 l/m 0 min 0 min 97 W/m 3,2 km/h (1 Bft) 98,94 %
22.01.2021 12:10 5,8 C 5,6 C 4,5 C 91 % 994,0 hPa 0,0 l/m 0 min 0 min 115 W/m 3,2 km/h (1 Bft) 97,87 %
22.01.2021 12:12 5,7 C 5,6 C 4,5 C 91 % 994,0 hPa 0,0 l/m 0 min 0 min 118 W/m 3,2 km/h (1 Bft) 100,00 %
22.01.2021 12:14 5,7 C 6,1 C 5,0 C 91 % 994,1 hPa 0,0 l/m 0 min 0 min 124 W/m 3,2 km/h (1 Bft) 98,00 %
22.01.2021 12:16 5,8 C 6,1 C 5,0 C 91 % 994,1 hPa 0,0 l/m 0 min 0 min 141 W/m 6,4 km/h (2 Bft) 97,83 %
22.01.2021 12:18 5,8 C 6,1 C 5,0 C 91 % 994,1 hPa 0,0 l/m 0 min 0 min 146 W/m 3,2 km/h (1 Bft) 100,00 %
22.01.2021 12:20 5,8 C 6,1 C 5,0 C 91 % 994,2 hPa 0,0 l/m 0 min 0 min 142 W/m 3,2 km/h (1 Bft) 100,00 %
22.01.2021 12:22 5,8 C 6,7 C 5,6 C 91 % 994,2 hPa 0,0 l/m 0 min 0 min 174 W/m 0,0 km/h (0 Bft) 100,00 %
22.01.2021 12:24 5,9 C 6,7 C 5,6 C 91 % 994,3 hPa 0,0 l/m 0 min 0 min 162 W/m 0,0 km/h (0 Bft) 97,87 %
22.01.2021 12:26 5,9 C 6,7 C 5,6 C 91 % 994,2 hPa 0,0 l/m 0 min 0 min 147 W/m 3,2 km/h (1 Bft) 97,87 %
22.01.2021 12:28 5,9 C 7,2 C 6,2 C 90 % 994,2 hPa 0,0 l/m 0 min 0 min 179 W/m 0,0 km/h (0 Bft) 97,83 %
22.01.2021 12:30 6,0 C 7,8 C 6,2 C 91 % 994,2 hPa 0,0 l/m 2 min 0 min 267 W/m 3,2 km/h (1 Bft) 97,87 %
22.01.2021 12:32 6,0 C 7,2 C 6,2 C 90 % 994,2 hPa 0,0 l/m 0 min 0 min 178 W/m 3,2 km/h (1 Bft) 95,74 %
22.01.2021 12:34 6,0 C 6,7 C 5,6 C 90 % 994,2 hPa 0,0 l/m 0 min 0 min 110 W/m 3,2 km/h (1 Bft) 95,74 %
22.01.2021 12:36 6,0 C 6,7 C 5,6 C 90 % 994,3 hPa 0,0 l/m 0 min 0 min 132 W/m 3,2 km/h (1 Bft) 97,87 %
22.01.2021 12:38 6,0 C 6,7 C 5,6 C 89 % 994,3 hPa 0,0 l/m 2 min 0 min 204 W/m 0,0 km/h (0 Bft) 97,87 %
22.01.2021 12:40 6,0 C 6,7 C 5,6 C 89 % 994,3 hPa 0,0 l/m 0 min 0 min 171 W/m 3,2 km/h (1 Bft) 97,83 %
22.01.2021 12:42 6,1 C 6,7 C 5,6 C 89 % 994,4 hPa 0,0 l/m 0 min 0 min 137 W/m 3,2 km/h (1 Bft) 95,74 %
22.01.2021 12:44 6,1 C 6,7 C 6,2 C 89 % 994,4 hPa 0,0 l/m 2 min 0 min 190 W/m 0,0 km/h (0 Bft) 97,87 %
22.01.2021 12:46 6,1 C 7,2 C 6,2 C 88 % 994,4 hPa 0,0 l/m 2 min 0 min 186 W/m 3,2 km/h (1 Bft) 95,74 %
22.01.2021 12:48 6,1 C 6,7 C 5,6 C 88 % 994,4 hPa 0,0 l/m 0 min 0 min 143 W/m 3,2 km/h (1 Bft) 97,87 %
22.01.2021 12:50 6,1 C 6,7 C 6,2 C 88 % 994,4 hPa 0,0 l/m 0 min 0 min 151 W/m 3,2 km/h (1 Bft) 95,74 %
22.01.2021 12:52 6,1 C 7,8 C 6,7 C 88 % 994,4 hPa 0,0 l/m 2 min 0 min 214 W/m 0,0 km/h (0 Bft) 95,65 %
22.01.2021 12:54 6,2 C 7,8 C 6,7 C 88 % 994,5 hPa 0,0 l/m 2 min 0 min 249 W/m 0,0 km/h (0 Bft) 97,87 %
22.01.2021 12:56 6,3 C 7,2 C 6,7 C 88 % 994,5 hPa 0,0 l/m 0 min 0 min 162 W/m 3,2 km/h (1 Bft) 97,87 %
22.01.2021 12:58 6,3 C 7,8 C 7,3 C 88 % 994,5 hPa 0,0 l/m 2 min 0 min 227 W/m 3,2 km/h (1 Bft) 97,87 %
22.01.2021 13:00 6,3 C 7,2 C 6,7 C 88 % 994,5 hPa 0,0 l/m 2 min 0 min 227 W/m 0,0 km/h (0 Bft) 95,74 %
22.01.2021 13:02 6,4 C 8,3 C 7,8 C 88 % 994,6 hPa 0,0 l/m 2 min 0 min 265 W/m 0,0 km/h (0 Bft) 97,87 %
22.01.2021 13:04 6,4 C 8,9 C 8,4 C 87 % 994,5 hPa 0,0 l/m 2 min 0 min 388 W/m 3,2 km/h (1 Bft) 95,65 %
22.01.2021 13:06 6,4 C 10,0 C 10,0 C 87 % 994,5 hPa 0,0 l/m 2 min 0 min 470 W/m 0,0 km/h (0 Bft) 100,00 %
22.01.2021 13:08 6,5 C 8,9 C 9,5 C 87 % 994,5 hPa 0,0 l/m 2 min 0 min 451 W/m 3,2 km/h (1 Bft) 100,00 %
22.01.2021 13:10 6,6 C 9,4 C 9,5 C 87 % 994,5 hPa 0,0 l/m 2 min 0 min 338 W/m 3,2 km/h (1 Bft) 95,74 %
22.01.2021 13:12 6,6 C 8,3 C 7,8 C 87 % 994,5 hPa 0,0 l/m 2 min 0 min 280 W/m 3,2 km/h (1 Bft) 100,00 %
22.01.2021 13:14 6,7 C 8,3 C 7,8 C 86 % 994,5 hPa 0,0 l/m 0 min 0 min 162 W/m 0,0 km/h (0 Bft) 100,00 %
22.01.2021 13:16 6,8 C 7,8 C 7,3 C 86 % 994,5 hPa 0,0 l/m 0 min 0 min 168 W/m 3,2 km/h (1 Bft) 100,00 %
22.01.2021 13:18 6,8 C 7,8 C 6,7 C 86 % 994,5 hPa 0,0 l/m 0 min 0 min 147 W/m 3,2 km/h (1 Bft) 100,00 %
22.01.2021 13:20 6,9 C 7,8 C 6,7 C 86 % 994,5 hPa 0,0 l/m 0 min 0 min 158 W/m 0,0 km/h (0 Bft) 97,87 %
22.01.2021 13:22 6,9 C 8,3 C 7,8 C 86 % 994,5 hPa 0,0 l/m 2 min 0 min 206 W/m 0,0 km/h (0 Bft) 100,00 %
22.01.2021 13:24 6,9 C 10,0 C 9,5 C 86 % 994,5 hPa 0,0 l/m 2 min 0 min 241 W/m 0,0 km/h (0 Bft) 100,00 %
22.01.2021 13:26 6,9 C 10,0 C 10,0 C 85 % 994,6 hPa 0,0 l/m 2 min 0 min 428 W/m 3,2 km/h (1 Bft) 100,00 %
22.01.2021 13:28 7,0 C 8,9 C 8,9 C 85 % 994,5 hPa 0,0 l/m 2 min 0 min 429 W/m 0,0 km/h (0 Bft) 97,87 %
22.01.2021 13:30 7,0 C 8,9 C 7,8 C 85 % 994,4 hPa 0,0 l/m 2 min 0 min 288 W/m 6,4 km/h (2 Bft) 97,83 %
22.01.2021 13:32 7,0 C 9,4 C 8,4 C 84 % 994,5 hPa 0,0 l/m 2 min 0 min 265 W/m 0,0 km/h (0 Bft) 97,87 %
22.01.2021 13:34 7,0 C 10,0 C 8,9 C 84 % 994,5 hPa 0,0 l/m 2 min 0 min 364 W/m 3,2 km/h (1 Bft) 95,74 %
22.01.2021 13:36 7,0 C 11,7 C 10,0 C 83 % 994,5 hPa 0,0 l/m 2 min 0 min 351 W/m 3,2 km/h (1 Bft) 97,87 %
22.01.2021 13:38 7,1 C 10,0 C 10,0 C 83 % 994,4 hPa 0,0 l/m 2 min 0 min 292 W/m 6,4 km/h (2 Bft) 97,87 %
22.01.2021 13:40 7,1 C 10,0 C 9,5 C 83 % 994,4 hPa 0,0 l/m 2 min 0 min 367 W/m 3,2 km/h (1 Bft) 95,74 %
22.01.2021 13:42 7,1 C 11,1 C 10,0 C 83 % 994,4 hPa 0,0 l/m 2 min 0 min 413 W/m 0,0 km/h (0 Bft) 98,18 %
22.01.2021 13:44 7,3 C 12,2 C 11,7 C 83 % 994,5 hPa 0,0 l/m 2 min 0 min 433 W/m 0,0 km/h (0 Bft) 97,87 %
22.01.2021 13:46 7,3 C 11,7 C 11,7 C 83 % 994,5 hPa 0,0 l/m 2 min 0 min 436 W/m 0,0 km/h (0 Bft) 97,87 %
22.01.2021 13:48 7,4 C 10,0 C 11,2 C 83 % 994,5 hPa 0,0 l/m 2 min 0 min 413 W/m 0,0 km/h (0 Bft) 95,74 %
22.01.2021 13:50 7,5 C 11,1 C 11,2 C 83 % 994,6 hPa 0,0 l/m 2 min 0 min 288 W/m 6,4 km/h (2 Bft) 97,83 %
22.01.2021 13:52 7,5 C 11,7 C 11,2 C 82 % 994,5 hPa 0,0 l/m 2 min 0 min 404 W/m 3,2 km/h (1 Bft) 97,87 %
22.01.2021 13:54 7,6 C 11,7 C 11,7 C 82 % 994,6 hPa 0,0 l/m 2 min 0 min 434 W/m 0,0 km/h (0 Bft) 95,74 %
22.01.2021 13:56 7,7 C 12,8 C 12,3 C 81 % 994,5 hPa 0,0 l/m 2 min 0 min 314 W/m 0,0 km/h (0 Bft) 97,87 %
22.01.2021 13:58 7,8 C 11,7 C 12,3 C 81 % 994,5 hPa 0,0 l/m 2 min 0 min 312 W/m 12,9 km/h (3 Bft) 95,74 %
22.01.2021 14:00 7,9 C 11,7 C 11,7 C 81 % 994,5 hPa 0,0 l/m 2 min 0 min 311 W/m 6,4 km/h (2 Bft) 95,65 %
22.01.2021 14:02 7,9 C 12,2 C 11,2 C 81 % 994,6 hPa 0,0 l/m 2 min 0 min 421 W/m 3,2 km/h (1 Bft) 95,74 %
22.01.2021 14:04 8,0 C 10,6 C 9,5 C 80 % 994,6 hPa 0,0 l/m 2 min 0 min 390 W/m 38,6 km/h (5 Bft) 95,74 %
22.01.2021 14:06 8,0 C 10,0 C 8,4 C 79 % 994,7 hPa 0,0 l/m 2 min 0 min 321 W/m 6,4 km/h (2 Bft) 95,74 %
22.01.2021 14:08 8,0 C 10,0 C 8,4 C 78 % 994,6 hPa 0,0 l/m 2 min 0 min 255 W/m 3,2 km/h (1 Bft) 95,74 %
22.01.2021 14:10 8,0 C 10,6 C 8,4 C 78 % 994,7 hPa 0,0 l/m 2 min 0 min 354 W/m 19,3 km/h (3 Bft) 95,74 %
22.01.2021 14:12 8,0 C 10,6 C 8,9 C 78 % 994,7 hPa 0,0 l/m 2 min 0 min 371 W/m 3,2 km/h (1 Bft) 95,65 %
22.01.2021 14:14 8,0 C 10,6 C 9,5 C 78 % 994,7 hPa 0,0 l/m 2 min 0 min 346 W/m 0,0 km/h (0 Bft) 95,74 %
22.01.2021 14:16 8,0 C 11,1 C 10,0 C 78 % 994,8 hPa 0,0 l/m 2 min 0 min 331 W/m 12,9 km/h (3 Bft) 95,74 %
22.01.2021 14:18 8,0 C 11,7 C 10,6 C 78 % 994,8 hPa 0,0 l/m 2 min 0 min 328 W/m 0,0 km/h (0 Bft) 95,74 %
22.01.2021 14:20 8,0 C 11,1 C 11,2 C 78 % 994,8 hPa 0,0 l/m 2 min 0 min 305 W/m 0,0 km/h (0 Bft) 95,74 %
22.01.2021 14:22 8,0 C 10,6 C 11,2 C 78 % 994,8 hPa 0,0 l/m 2 min 0 min 322 W/m 22,5 km/h (4 Bft) 93,62 %
22.01.2021 14:24 8,0 C 10,6 C 11,2 C 78 % 994,8 hPa 0,0 l/m 2 min 0 min 338 W/m 3,2 km/h (1 Bft) 95,65 %
22.01.2021 14:26 8,0 C 10,6 C 11,2 C 77 % 994,9 hPa 0,0 l/m 2 min 0 min 344 W/m 0,0 km/h (0 Bft) 93,62 %
22.01.2021 14:28 8,0 C 10,6 C 11,2 C 77 % 994,8 hPa 0,0 l/m 2 min 0 min 344 W/m 16,1 km/h (3 Bft) 95,74 %
22.01.2021 14:30 8,0 C 10,0 C 10,0 C 77 % 994,8 hPa 0,0 l/m 2 min 0 min 164 W/m 0,0 km/h (0 Bft) 97,87 %
22.01.2021 14:32 8,1 C 11,1 C 11,2 C 77 % 994,9 hPa 0,0 l/m 2 min 0 min 274 W/m 3,2 km/h (1 Bft) 93,62 %
22.01.2021 14:34 8,0 C 10,6 C 9,5 C 77 % 994,9 hPa 0,0 l/m 2 min 0 min 253 W/m 12,9 km/h (3 Bft) 93,62 %
22.01.2021 14:36 8,0 C 10,6 C 9,5 C 77 % 994,9 hPa 0,0 l/m 2 min 0 min 220 W/m 9,7 km/h (2 Bft) 93,48 %
22.01.2021 14:38 8,0 C 9,4 C 8,4 C 77 % 994,9 hPa 0,0 l/m 2 min 0 min 171 W/m 3,2 km/h (1 Bft) 95,74 %
22.01.2021 14:40 8,0 C 8,9 C 7,8 C 77 % 995,0 hPa 0,0 l/m 2 min 0 min 174 W/m 0,0 km/h (0 Bft) 93,62 %
22.01.2021 14:42 8,0 C 8,9 C 7,8 C 77 % 995,0 hPa 0,0 l/m 2 min 0 min 179 W/m 0,0 km/h (0 Bft) 93,75 %
22.01.2021 14:44 8,0 C 8,3 C 8,4 C 77 % 995,0 hPa 0,0 l/m 2 min 0 min 197 W/m 3,2 km/h (1 Bft) 93,62 %
22.01.2021 14:46 7,9 C 8,9 C 7,8 C 77 % 995,0 hPa 0,0 l/m 2 min 0 min 193 W/m 0,0 km/h (0 Bft) 95,74 %
22.01.2021 14:48 7,9 C 8,9 C 7,3 C 77 % 995,0 hPa 0,0 l/m 2 min 0 min 203 W/m 3,2 km/h (1 Bft) 95,65 %
22.01.2021 14:50 7,8 C 9,4 C 7,3 C 77 % 995,0 hPa 0,0 l/m 2 min 0 min 209 W/m 3,2 km/h (1 Bft) 95,74 %
22.01.2021 14:52 7,8 C 10,0 C 6,7 C 77 % 995,1 hPa 0,0 l/m 2 min 0 min 233 W/m 6,4 km/h (2 Bft) 97,87 %
22.01.2021 14:54 7,8 C 10,6 C 6,7 C 77 % 995,1 hPa 0,0 l/m 2 min 0 min 259 W/m 6,4 km/h (2 Bft) 93,62 %
22.01.2021 14:56 7,8 C 10,6 C 6,7 C 78 % 995,1 hPa 0,0 l/m 2 min 0 min 272 W/m 3,2 km/h (1 Bft) 97,87 %
22.01.2021 14:58 7,8 C 11,1 C 6,7 C 78 % 995,1 hPa 0,0 l/m 2 min 0 min 250 W/m 0,0 km/h (0 Bft) 97,87 %
22.01.2021 15:00 7,9 C 11,7 C 7,8 C 78 % 995,1 hPa 0,0 l/m 2 min 0 min 282 W/m 3,2 km/h (1 Bft) 97,83 %
22.01.2021 15:02 7,9 C 12,2 C 8,9 C 78 % 995,1 hPa 0,0 l/m 2 min 0 min 288 W/m 6,4 km/h (2 Bft) 95,74 %
22.01.2021 15:04 7,9 C 12,8 C 10,0 C 78 % 995,1 hPa 0,0 l/m 2 min 0 min 281 W/m 0,0 km/h (0 Bft) 95,74 %
22.01.2021 15:06 8,0 C 11,1 C 10,0 C 78 % 995,1 hPa 0,0 l/m 2 min 0 min 262 W/m 0,0 km/h (0 Bft) 97,87 %
22.01.2021 15:08 8,0 C 10,0 C 9,5 C 77 % 995,1 hPa 0,0 l/m 2 min 0 min 217 W/m 16,1 km/h (3 Bft) 97,87 %
22.01.2021 15:10 8,0 C 10,0 C 8,9 C 76 % 995,2 hPa 0,0 l/m 2 min 0 min 228 W/m 16,1 km/h (3 Bft) 95,74 %
22.01.2021 15:12 8,0 C 10,0 C 8,9 C 76 % 995,2 hPa 0,0 l/m 2 min 0 min 235 W/m 6,4 km/h (2 Bft) 100,00 %
22.01.2021 15:14 8,0 C 10,0 C 10,0 C 77 % 995,2 hPa 0,0 l/m 2 min 0 min 217 W/m 3,2 km/h (1 Bft) 100,00 %
22.01.2021 15:16 8,0 C 9,4 C 9,5 C 77 % 995,2 hPa 0,0 l/m 2 min 0 min 210 W/m 6,4 km/h (2 Bft) 100,00 %
22.01.2021 15:18 8,0 C 10,0 C 8,9 C 77 % 995,3 hPa 0,0 l/m 2 min 0 min 193 W/m 3,2 km/h (1 Bft) 100,00 %
22.01.2021 15:20 8,0 C 9,4 C 8,9 C 77 % 995,4 hPa 0,0 l/m 2 min 0 min 212 W/m 6,4 km/h (2 Bft) 97,87 %
22.01.2021 15:22 8,0 C 10,0 C 7,8 C 76 % 995,3 hPa 0,0 l/m 2 min 0 min 218 W/m 3,2 km/h (1 Bft) 100,00 %
22.01.2021 15:24 8,0 C 9,4 C 8,4 C 76 % 995,4 hPa 0,0 l/m 2 min 0 min 208 W/m 0,0 km/h (0 Bft) 100,00 %
22.01.2021 15:26 8,0 C 9,4 C 7,8 C 76 % 995,3 hPa 0,0 l/m 2 min 0 min 211 W/m 3,2 km/h (1 Bft) 100,00 %
22.01.2021 15:28 8,0 C 9,4 C 7,8 C 75 % 995,4 hPa 0,0 l/m 2 min 0 min 205 W/m 0,0 km/h (0 Bft) 100,00 %
22.01.2021 15:30 8,0 C 8,9 C 7,3 C 75 % 995,5 hPa 0,0 l/m 2 min 0 min 139 W/m 9,7 km/h (2 Bft) 100,00 %
22.01.2021 15:32 8,0 C 9,4 C 8,4 C 75 % 995,5 hPa 0,0 l/m 2 min 0 min 167 W/m 0,0 km/h (0 Bft) 100,00 %
22.01.2021 15:34 8,0 C 8,9 C 8,4 C 75 % 995,5 hPa 0,0 l/m 2 min 0 min 178 W/m 3,2 km/h (1 Bft) 100,00 %
22.01.2021 15:36 8,0 C 8,9 C 8,4 C 75 % 995,5 hPa 0,0 l/m 2 min 0 min 183 W/m 6,4 km/h (2 Bft) 100,00 %
22.01.2021 15:38 8,0 C 9,4 C 8,9 C 74 % 995,5 hPa 0,0 l/m 2 min 0 min 165 W/m 0,0 km/h (0 Bft) 100,00 %
22.01.2021 15:40 7,9 C 8,9 C 9,5 C 74 % 995,5 hPa 0,0 l/m 2 min 0 min 153 W/m 3,2 km/h (1 Bft) 100,00 %
22.01.2021 15:42 8,0 C 9,4 C 8,9 C 75 % 995,5 hPa 0,0 l/m 2 min 0 min 147 W/m 0,0 km/h (0 Bft) 100,00 %
22.01.2021 15:44 8,0 C 9,4 C 8,9 C 75 % 995,4 hPa 0,0 l/m 2 min 0 min 161 W/m 0,0 km/h (0 Bft) 100,00 %
22.01.2021 15:46 7,9 C 10,0 C 8,4 C 75 % 995,4 hPa 0,0 l/m 2 min 0 min 156 W/m 0,0 km/h (0 Bft) 100,00 %
22.01.2021 15:48 7,9 C 9,4 C 7,3 C 74 % 995,4 hPa 0,0 l/m 2 min 0 min 150 W/m 6,4 km/h (2 Bft) 97,87 %
22.01.2021 15:50 7,9 C 8,9 C 5,6 C 75 % 995,4 hPa 0,0 l/m 2 min 0 min 130 W/m 6,4 km/h (2 Bft) 100,00 %
22.01.2021 15:52 7,9 C 8,3 C 5,0 C 74 % 995,4 hPa 0,0 l/m 2 min 0 min 125 W/m 12,9 km/h (3 Bft) 97,87 %
22.01.2021 15:54 7,9 C 7,8 C 4,5 C 75 % 995,4 hPa 0,0 l/m 2 min 0 min 115 W/m 0,0 km/h (0 Bft) 97,87 %
22.01.2021 15:56 7,9 C 7,8 C 4,5 C 75 % 995,4 hPa 0,0 l/m 2 min 0 min 102 W/m 6,4 km/h (2 Bft) 100,00 %
22.01.2021 15:58 7,8 C 7,8 C 3,9 C 74 % 995,5 hPa 0,0 l/m 2 min 0 min 107 W/m 3,2 km/h (1 Bft) 97,87 %
22.01.2021 16:00 7,8 C 8,3 C 3,9 C 74 % 995,5 hPa 0,0 l/m 2 min 0 min 116 W/m 0,0 km/h (0 Bft) 100,00 %
22.01.2021 16:02 7,8 C 8,3 C 3,9 C 75 % 995,5 hPa 0,0 l/m 2 min 0 min 111 W/m 0,0 km/h (0 Bft) 97,87 %
22.01.2021 16:04 7,8 C 8,3 C 3,9 C 75 % 995,5 hPa 0,0 l/m 2 min 0 min 104 W/m 3,2 km/h (1 Bft) 100,00 %
22.01.2021 16:06 7,8 C 8,3 C 3,9 C 75 % 995,4 hPa 0,0 l/m 2 min 0 min 99 W/m 0,0 km/h (0 Bft) 59,57 %
22.01.2021 16:08 7,8 C 8,3 C 3,9 C 75 % 995,4 hPa 0,0 l/m 2 min 0 min 98 W/m 0,0 km/h (0 Bft) 95,56 %
22.01.2021 16:10 7,7 C 8,3 C 3,9 C 75 % 995,5 hPa 0,0 l/m 2 min 0 min 90 W/m 0,0 km/h (0 Bft) 100,00 %
22.01.2021 16:12 7,7 C 8,3 C 3,9 C 75 % 995,4 hPa 0,0 l/m 2 min 0 min 90 W/m 0,0 km/h (0 Bft) 100,00 %
22.01.2021 16:14 7,7 C 8,9 C 3,9 C 75 % 995,4 hPa 0,0 l/m 2 min 0 min 89 W/m 6,4 km/h (2 Bft) 97,87 %
22.01.2021 16:16 7,7 C 8,9 C 3,9 C 76 % 995,4 hPa 0,0 l/m 2 min 0 min 76 W/m 3,2 km/h (1 Bft) 97,83 %
22.01.2021 16:18 7,7 C 8,3 C 3,9 C 76 % 995,5 hPa 0,0 l/m 2 min 0 min 67 W/m 0,0 km/h (0 Bft) 95,74 %
22.01.2021 16:20 7,7 C 7,8 C 3,9 C 76 % 995,5 hPa 0,0 l/m 2 min 0 min 63 W/m 3,2 km/h (1 Bft) 98,21 %
22.01.2021 16:22 7,7 C 7,2 C 3,9 C 76 % 995,5 hPa 0,0 l/m 2 min 0 min 59 W/m 3,2 km/h (1 Bft) 95,65 %
22.01.2021 16:24 7,7 C 7,2 C 3,4 C 76 % 995,5 hPa 0,0 l/m 2 min 0 min 49 W/m 3,2 km/h (1 Bft) 97,87 %
22.01.2021 16:26 7,6 C 6,7 C 3,4 C 76 % 995,5 hPa 0,0 l/m 2 min 0 min 46 W/m 6,4 km/h (2 Bft) 97,87 %
22.01.2021 16:28 7,6 C 6,7 C 3,4 C 76 % 995,5 hPa 0,0 l/m 0 min 0 min 41 W/m 0,0 km/h (0 Bft) 97,87 %
22.01.2021 16:30 7,6 C 6,7 C 3,4 C 76 % 995,6 hPa 0,0 l/m 0 min 0 min 37 W/m 0,0 km/h (0 Bft) 97,87 %
22.01.2021 16:32 7,6 C 6,7 C 3,4 C 76 % 995,5 hPa 0,0 l/m 0 min 0 min 34 W/m 3,2 km/h (1 Bft) 97,87 %
22.01.2021 16:34 7,5 C 6,1 C 3,4 C 76 % 995,6 hPa 0,0 l/m 0 min 0 min 31 W/m 0,0 km/h (0 Bft) 97,83 %
22.01.2021 16:36 7,5 C 6,1 C 3,4 C 76 % 995,6 hPa 0,0 l/m 0 min 0 min 27 W/m 0,0 km/h (0 Bft) 97,87 %
22.01.2021 16:38 7,5 C 6,1 C 2,8 C 76 % 995,6 hPa 0,0 l/m 0 min 0 min 25 W/m 0,0 km/h (0 Bft) 95,74 %
22.01.2021 16:40 7,4 C 6,1 C 2,8 C 76 % 995,6 hPa 0,0 l/m 0 min 0 min 22 W/m 0,0 km/h (0 Bft) 97,87 %
22.01.2021 16:42 7,4 C 6,1 C 2,8 C 76 % 995,6 hPa 0,0 l/m 0 min 0 min 19 W/m 0,0 km/h (0 Bft) 97,87 %
22.01.2021 16:44 7,4 C 6,1 C 2,8 C 76 % 995,6 hPa 0,0 l/m 0 min 0 min 18 W/m 0,0 km/h (0 Bft) 97,87 %
22.01.2021 16:46 7,4 C 5,6 C 2,8 C 76 % 995,6 hPa 0,0 l/m 0 min 0 min 17 W/m 0,0 km/h (0 Bft) 97,83 %
22.01.2021 16:48 7,4 C 5,6 C 2,8 C 76 % 995,6 hPa 0,0 l/m 0 min 0 min 15 W/m 0,0 km/h (0 Bft) 97,87 %
22.01.2021 16:50 7,3 C 5,6 C 2,3 C 77 % 995,6 hPa 0,0 l/m 0 min 0 min 14 W/m 0,0 km/h (0 Bft) 97,87 %
22.01.2021 16:52 7,3 C 5,6 C 2,3 C 77 % 995,6 hPa 0,0 l/m 0 min 0 min 12 W/m 0,0 km/h (0 Bft) 97,87 %
22.01.2021 16:54 7,2 C 5,6 C 2,3 C 77 % 995,6 hPa 0,0 l/m 0 min 0 min 11 W/m 0,0 km/h (0 Bft) 93,62 %
22.01.2021 16:56 7,1 C 5,0 C 2,3 C 77 % 995,7 hPa 0,0 l/m 0 min 0 min 10 W/m 0,0 km/h (0 Bft) 95,74 %
22.01.2021 16:58 7,1 C 5,0 C 1,7 C 77 % 995,6 hPa 0,0 l/m 0 min 0 min 8 W/m 0,0 km/h (0 Bft) 93,48 %
22.01.2021 17:00 7,1 C 5,0 C 1,7 C 77 % 995,6 hPa 0,0 l/m 0 min 0 min 7 W/m 0,0 km/h (0 Bft) 95,74 %
22.01.2021 17:02 7,0 C 5,0 C 1,7 C 78 % 995,6 hPa 0,0 l/m 0 min 0 min 5 W/m 0,0 km/h (0 Bft) 93,62 %
22.01.2021 17:04 6,9 C 5,0 C 1,7 C 78 % 995,6 hPa 0,0 l/m 0 min 0 min 3 W/m 0,0 km/h (0 Bft) 93,62 %
22.01.2021 17:06 6,9 C 5,0 C 1,7 C 78 % 995,6 hPa 0,0 l/m 0 min 0 min 0 W/m 0,0 km/h (0 Bft) 95,74 %
22.01.2021 17:08 6,8 C 5,0 C 1,7 C 78 % 995,6 hPa 0,0 l/m 0 min 0 min 0 W/m 0,0 km/h (0 Bft) 95,74 %
22.01.2021 17:10 6,7 C 5,0 C 1,7 C 78 % 995,6 hPa 0,0 l/m 0 min 0 min 0 W/m 0,0 km/h (0 Bft) 93,48 %
22.01.2021 17:12 6,6 C 5,0 C 1,7 C 78 % 995,6 hPa 0,0 l/m 0 min 0 min 0 W/m 0,0 km/h (0 Bft) 93,62 %
22.01.2021 17:14 6,6 C 5,0 C 1,7 C 78 % 995,7 hPa 0,0 l/m 0 min 0 min 0 W/m 0,0 km/h (0 Bft) 95,74 %
22.01.2021 17:16 6,5 C 5,0 C 1,7 C 78 % 995,6 hPa 0,0 l/m 0 min 0 min 0 W/m 3,2 km/h (1 Bft) 95,74 %
22.01.2021 17:18 6,5 C 5,0 C 1,7 C 79 % 995,6 hPa 0,0 l/m 0 min 0 min 0 W/m 0,0 km/h (0 Bft) 95,74 %
22.01.2021 17:20 6,4 C 5,0 C 1,7 C 79 % 995,6 hPa 0,0 l/m 0 min 0 min 0 W/m 0,0 km/h (0 Bft) 95,74 %
22.01.2021 17:22 6,4 C 5,0 C 1,7 C 79 % 995,6 hPa 0,0 l/m 0 min 0 min 0 W/m 0,0 km/h (0 Bft) 93,48 %
22.01.2021 17:24 6,3 C 5,0 C 1,7 C 79 % 995,6 hPa 0,0 l/m 0 min 0 min 0 W/m 0,0 km/h (0 Bft) 95,74 %
22.01.2021 17:26 6,3 C 5,0 C 1,7 C 79 % 995,7 hPa 0,0 l/m 0 min 0 min 0 W/m 0,0 km/h (0 Bft) 95,74 %
22.01.2021 17:28 6,2 C 5,0 C 1,7 C 79 % 995,7 hPa 0,0 l/m 0 min 0 min 0 W/m 0,0 km/h (0 Bft) 93,62 %
22.01.2021 17:30 6,1 C 5,0 C 1,7 C 79 % 995,7 hPa 0,0 l/m 0 min 0 min 0 W/m 0,0 km/h (0 Bft) 93,62 %
22.01.2021 17:32 6,1 C 5,0 C 1,7 C 79 % 995,7 hPa 0,0 l/m 0 min 0 min 0 W/m 0,0 km/h (0 Bft) 97,87 %
22.01.2021 17:34 6,0 C 4,4 C 1,7 C 79 % 995,8 hPa 0,0 l/m 0 min 0 min 0 W/m 0,0 km/h (0 Bft) 95,74 %
22.01.2021 17:36 6,0 C 4,4 C 1,7 C 79 % 995,8 hPa 0,0 l/m 0 min 0 min 0 W/m 0,0 km/h (0 Bft) 95,74 %
22.01.2021 17:38 5,9 C 4,4 C 1,7 C 79 % 995,8 hPa 0,0 l/m 0 min 0 min 0 W/m 0,0 km/h (0 Bft) 95,74 %
22.01.2021 17:40 5,9 C 4,4 C 1,7 C 80 % 995,8 hPa 0,0 l/m 0 min 0 min 0 W/m 0,0 km/h (0 Bft) 93,62 %
22.01.2021 17:42 5,9 C 4,4 C 1,7 C 80 % 995,8 hPa 0,0 l/m 0 min 0 min 0 W/m 0,0 km/h (0 Bft) 95,74 %
22.01.2021 17:44 5,8 C 4,4 C 1,2 C 80 % 995,8 hPa 0,0 l/m 0 min 0 min 0 W/m 0,0 km/h (0 Bft) 95,74 %
22.01.2021 17:46 5,8 C 3,9 C 1,2 C 80 % 995,9 hPa 0,0 l/m 0 min 0 min 0 W/m 0,0 km/h (0 Bft) 91,30 %
22.01.2021 17:48 5,7 C 3,9 C 1,2 C 80 % 995,9 hPa 0,0 l/m 0 min 0 min 0 W/m 0,0 km/h (0 Bft) 97,87 %
22.01.2021 17:50 5,7 C 3,9 C 1,2 C 80 % 995,9 hPa 0,0 l/m 0 min 0 min 0 W/m 0,0 km/h (0 Bft) 97,87 %
22.01.2021 17:52 5,6 C 3,9 C 0,6 C 80 % 995,9 hPa 0,0 l/m 0 min 0 min 0 W/m 0,0 km/h (0 Bft) 95,74 %
22.01.2021 17:54 5,6 C 3,9 C 0,6 C 80 % 995,9 hPa 0,0 l/m 0 min 0 min 0 W/m 0,0 km/h (0 Bft) 97,87 %
22.01.2021 17:56 5,5 C 3,9 C 0,6 C 80 % 995,9 hPa 0,0 l/m 0 min 0 min 0 W/m 0,0 km/h (0 Bft) 100,00 %
22.01.2021 17:58 5,5 C 3,9 C 0,6 C 80 % 995,9 hPa 0,0 l/m 0 min 0 min 0 W/m 0,0 km/h (0 Bft) 100,00 %
22.01.2021 18:00 5,4 C 3,9 C 0,6 C 80 % 995,9 hPa 0,0 l/m 0 min 0 min 0 W/m 0,0 km/h (0 Bft) 100,00 %
22.01.2021 18:02 5,4 C 3,9 C 0,6 C 80 % 995,9 hPa 0,0 l/m 0 min 0 min 0 W/m 0,0 km/h (0 Bft) 97,87 %
22.01.2021 18:04 5,4 C 3,9 C 0,6 C 80 % 995,9 hPa 0,0 l/m 0 min 0 min 0 W/m 0,0 km/h (0 Bft) 100,00 %
22.01.2021 18:08 5,3 C 3,9 C 0,6 C 80 % 996,0 hPa 0,0 l/m 0 min 0 min 0 W/m 0,0 km/h (0 Bft) 100,00 %
22.01.2021 18:10 5,2 C 3,9 C 0,6 C 80 % 996,0 hPa 0,0 l/m 0 min 0 min 0 W/m 0,0 km/h (0 Bft) 100,00 %
22.01.2021 18:12 5,1 C 3,9 C 0,6 C 80 % 996,0 hPa 0,0 l/m 0 min 0 min 0 W/m 0,0 km/h (0 Bft) 100,00 %
22.01.2021 18:14 5,1 C 3,9 C 0,6 C 81 % 996,0 hPa 0,0 l/m 0 min 0 min 0 W/m 0,0 km/h (0 Bft) 100,00 %
22.01.2021 18:16 5,1 C 3,9 C 0,6 C 81 % 996,1 hPa 0,0 l/m 0 min 0 min 0 W/m 0,0 km/h (0 Bft) 100,00 %
22.01.2021 18:18 5,0 C 3,3 C 0,0 C 81 % 996,1 hPa 0,0 l/m 0 min 0 min 0 W/m 0,0 km/h (0 Bft) 100,00 %
22.01.2021 18:20 5,0 C 3,3 C 0,0 C 81 % 996,1 hPa 0,0 l/m 0 min 0 min 0 W/m 0,0 km/h (0 Bft) 100,00 %
22.01.2021 18:22 4,9 C 3,3 C 0,0 C 81 % 996,1 hPa 0,0 l/m 0 min 0 min 0 W/m 0,0 km/h (0 Bft) 100,00 %
22.01.2021 18:24 4,9 C 3,9 C 0,6 C 81 % 996,1 hPa 0,0 l/m 0 min 0 min 0 W/m 0,0 km/h (0 Bft) 100,00 %
22.01.2021 18:26 4,9 C 3,9 C 0,6 C 81 % 996,1 hPa 0,0 l/m 0 min 0 min 0 W/m 0,0 km/h (0 Bft) 100,00 %
22.01.2021 18:28 4,9 C 3,9 C 0,6 C 81 % 996,2 hPa 0,0 l/m 0 min 0 min 0 W/m 0,0 km/h (0 Bft) 100,00 %
22.01.2021 18:30 4,8 C 3,9 C 0,6 C 81 % 996,2 hPa 0,0 l/m 0 min 0 min 0 W/m 0,0 km/h (0 Bft) 100,00 %
22.01.2021 18:32 4,8 C 3,9 C 0,6 C 81 % 996,1 hPa 0,0 l/m 0 min 0 min 0 W/m 0,0 km/h (0 Bft) 97,87 %
22.01.2021 18:34 4,7 C 3,3 C 0,6 C 81 % 996,2 hPa 0,0 l/m 0 min 0 min 0 W/m 0,0 km/h (0 Bft) 97,87 %
22.01.2021 18:36 4,6 C 3,3 C 0,6 C 82 % 996,2 hPa 0,0 l/m 0 min 0 min 0 W/m 0,0 km/h (0 Bft) 100,00 %
22.01.2021 18:38 4,6 C 3,3 C 0,6 C 82 % 996,2 hPa 0,0 l/m 0 min 0 min 0 W/m 0,0 km/h (0 Bft) 97,83 %
22.01.2021 18:40 4,6 C 3,3 C 0,6 C 82 % 996,2 hPa 0,0 l/m 0 min 0 min 0 W/m 0,0 km/h (0 Bft) 100,00 %
22.01.2021 18:42 4,6 C 2,8 C 0,0 C 82 % 996,2 hPa 0,0 l/m 0 min 0 min 0 W/m 0,0 km/h (0 Bft) 100,00 %
22.01.2021 18:44 4,5 C 2,8 C 0,0 C 82 % 996,3 hPa 0,0 l/m 0 min 0 min 0 W/m 0,0 km/h (0 Bft) 100,00 %
22.01.2021 18:46 4,5 C 2,8 C 0,0 C 82 % 996,3 hPa 0,0 l/m 0 min 0 min 0 W/m 0,0 km/h (0 Bft) 100,00 %
22.01.2021 18:48 4,5 C 2,8 C 0,0 C 82 % 996,3 hPa 0,0 l/m 0 min 0 min 0 W/m 0,0 km/h (0 Bft) 100,00 %
22.01.2021 18:50 4,4 C 2,2 C 0,0 C 82 % 996,3 hPa 0,0 l/m 0 min 0 min 0 W/m 0,0 km/h (0 Bft) 100,00 %
22.01.2021 18:52 4,4 C 2,2 C 0,0 C 82 % 996,3 hPa 0,0 l/m 0 min 0 min 0 W/m 0,0 km/h (0 Bft) 100,00 %
22.01.2021 18:54 4,4 C 2,2 C -0,5 C 82 % 996,3 hPa 0,0 l/m 0 min 0 min 0 W/m 0,0 km/h (0 Bft) 97,87 %
22.01.2021 18:56 4,3 C 2,2 C -0,5 C 82 % 996,4 hPa 0,0 l/m 0 min 0 min 0 W/m 0,0 km/h (0 Bft) 97,87 %
22.01.2021 18:58 4,3 C 2,2 C -0,5 C 82 % 996,4 hPa 0,0 l/m 0 min 0 min 0 W/m 0,0 km/h (0 Bft) 95,74 %
22.01.2021 19:00 4,2 C 2,2 C -0,5 C 82 % 996,4 hPa 0,0 l/m 0 min 0 min 0 W/m 0,0 km/h (0 Bft) 100,00 %
22.01.2021 19:02 4,1 C 2,2 C -0,5 C 83 % 996,4 hPa 0,0 l/m 0 min 0 min 0 W/m 0,0 km/h (0 Bft) 100,00 %
22.01.2021 19:04 4,1 C 2,2 C -0,5 C 83 % 996,4 hPa 0,0 l/m 0 min 0 min 0 W/m 0,0 km/h (0 Bft) 100,00 %
22.01.2021 19:06 4,0 C 1,7 C -0,5 C 83 % 996,4 hPa 0,0 l/m 0 min 0 min 0 W/m 0,0 km/h (0 Bft) 100,00 %
22.01.2021 19:08 4,0 C 1,7 C -0,5 C 83 % 996,5 hPa 0,0 l/m 0 min 0 min 0 W/m 0,0 km/h (0 Bft) 100,00 %
22.01.2021 19:10 3,9 C 1,7 C -0,5 C 83 % 996,5 hPa 0,0 l/m 0 min 0 min 0 W/m 0,0 km/h (0 Bft) 95,74 %
22.01.2021 19:12 3,9 C 1,7 C -0,5 C 83 % 996,5 hPa 0,0 l/m 0 min 0 min 0 W/m 0,0 km/h (0 Bft) 100,00 %
22.01.2021 19:14 3,8 C 1,7 C -0,5 C 84 % 996,5 hPa 0,0 l/m 0 min 0 min 0 W/m 0,0 km/h (0 Bft) 100,00 %
22.01.2021 19:16 3,8 C 1,7 C -0,5 C 84 % 996,5 hPa 0,0 l/m 0 min 0 min 0 W/m 0,0 km/h (0 Bft) 100,00 %
22.01.2021 19:18 3,7 C 1,7 C -0,5 C 84 % 996,5 hPa 0,0 l/m 0 min 0 min 0 W/m 0,0 km/h (0 Bft) 100,00 %
22.01.2021 19:20 3,6 C 1,7 C -1,1 C 84 % 996,5 hPa 0,0 l/m 0 min 0 min 0 W/m 0,0 km/h (0 Bft) 97,83 %
22.01.2021 19:22 3,6 C 1,7 C -1,1 C 84 % 996,5 hPa 0,0 l/m 0 min 0 min 0 W/m 0,0 km/h (0 Bft) 97,87 %
22.01.2021 19:24 3,5 C 1,7 C -1,1 C 84 % 996,5 hPa 0,0 l/m 0 min 0 min 0 W/m 0,0 km/h (0 Bft) 97,56 %
22.01.2021 19:26 3,5 C 1,7 C -0,5 C 85 % 996,6 hPa 0,0 l/m 0 min 0 min 0 W/m 0,0 km/h (0 Bft) 97,83 %
22.01.2021 19:28 3,4 C 2,2 C -0,5 C 85 % 996,6 hPa 0,0 l/m 0 min 0 min 0 W/m 0,0 km/h (0 Bft) 97,87 %
22.01.2021 19:30 3,4 C 2,2 C -0,5 C 85 % 996,6 hPa 0,0 l/m 0 min 0 min 0 W/m 0,0 km/h (0 Bft) 95,74 %
22.01.2021 19:32 3,4 C 2,2 C -0,5 C 85 % 996,7 hPa 0,0 l/m 0 min 0 min 0 W/m 0,0 km/h (0 Bft) 97,87 %
22.01.2021 19:34 3,3 C 2,2 C -0,5 C 85 % 996,7 hPa 0,0 l/m 0 min 0 min 0 W/m 0,0 km/h (0 Bft) 97,87 %
22.01.2021 19:36 3,3 C 2,2 C -0,5 C 85 % 996,7 hPa 0,0 l/m 0 min 0 min 0 W/m 0,0 km/h (0 Bft) 97,83 %
22.01.2021 19:38 3,3 C 2,2 C -0,5 C 85 % 996,7 hPa 0,0 l/m 0 min 0 min 0 W/m 0,0 km/h (0 Bft) 95,74 %
22.01.2021 19:40 3,2 C 2,2 C -0,5 C 85 % 996,7 hPa 0,0 l/m 0 min 0 min 0 W/m 0,0 km/h (0 Bft) 97,87 %
22.01.2021 19:42 3,2 C 2,8 C -0,5 C 85 % 996,8 hPa 0,0 l/m 0 min 0 min 0 W/m 0,0 km/h (0 Bft) 97,87 %
22.01.2021 19:44 3,1 C 2,8 C -0,5 C 86 % 996,8 hPa 0,0 l/m 0 min 0 min 0 W/m 0,0 km/h (0 Bft) 97,87 %
22.01.2021 19:46 3,1 C 2,8 C -0,5 C 86 % 996,8 hPa 0,0 l/m 0 min 0 min 0 W/m 0,0 km/h (0 Bft) 95,74 %
22.01.2021 19:48 3,1 C 2,8 C -0,5 C 86 % 996,8 hPa 0,0 l/m 0 min 0 min 0 W/m 0,0 km/h (0 Bft) 97,83 %
22.01.2021 19:50 3,1 C 2,8 C 0,0 C 86 % 996,8 hPa 0,0 l/m 0 min 0 min 0 W/m 0,0 km/h (0 Bft) 97,87 %
22.01.2021 19:52 3,1 C 2,8 C 0,0 C 86 % 996,8 hPa 0,0 l/m 0 min 0 min 0 W/m 0,0 km/h (0 Bft) 97,87 %
22.01.2021 19:54 3,1 C 2,8 C 0,0 C 87 % 996,8 hPa 0,0 l/m 0 min 0 min 0 W/m 0,0 km/h (0 Bft) 100,00 %
22.01.2021 19:56 3,1 C 2,8 C 0,0 C 87 % 996,9 hPa 0,0 l/m 0 min 0 min 0 W/m 0,0 km/h (0 Bft) 97,87 %
22.01.2021 19:58 3,1 C 2,8 C 0,0 C 87 % 996,9 hPa 0,0 l/m 0 min 0 min 0 W/m 0,0 km/h (0 Bft) 100,00 %
22.01.2021 20:00 3,1 C 3,3 C 0,6 C 87 % 996,9 hPa 0,0 l/m 0 min 0 min 0 W/m 0,0 km/h (0 Bft) 100,00 %
22.01.2021 20:02 3,1 C 2,8 C 0,6 C 87 % 996,9 hPa 0,0 l/m 0 min 0 min 0 W/m 0,0 km/h (0 Bft) 97,87 %
22.01.2021 20:04 3,1 C 3,3 C 0,6 C 87 % 996,9 hPa 0,0 l/m 0 min 0 min 0 W/m 0,0 km/h (0 Bft) 100,00 %
22.01.2021 20:06 3,2 C 2,8 C 0,6 C 88 % 996,9 hPa 0,0 l/m 0 min 0 min 0 W/m 0,0 km/h (0 Bft) 97,87 %
22.01.2021 20:08 3,2 C 2,8 C 0,6 C 88 % 997,0 hPa 0,0 l/m 0 min 0 min 0 W/m 0,0 km/h (0 Bft) 100,00 %
22.01.2021 20:10 3,2 C 2,8 C 0,6 C 88 % 997,0 hPa 0,0 l/m 0 min 0 min 0 W/m 0,0 km/h (0 Bft) 100,00 %
22.01.2021 20:12 3,2 C 2,8 C 0,6 C 88 % 997,0 hPa 0,0 l/m 0 min 0 min 0 W/m 0,0 km/h (0 Bft) 100,00 %
22.01.2021 20:14 3,2 C 2,8 C 0,6 C 88 % 996,9 hPa 0,0 l/m 0 min 0 min 0 W/m 0,0 km/h (0 Bft) 100,00 %
22.01.2021 20:16 3,2 C 2,8 C 0,6 C 88 % 997,0 hPa 0,0 l/m 0 min 0 min 0 W/m 0,0 km/h (0 Bft) 97,87 %
22.01.2021 20:18 3,3 C 2,8 C 0,6 C 88 % 997,0 hPa 0,0 l/m 0 min 0 min 0 W/m 0,0 km/h (0 Bft) 100,00 %
22.01.2021 20:20 3,3 C 2,8 C 0,6 C 88 % 997,0 hPa 0,0 l/m 0 min 0 min 0 W/m 0,0 km/h (0 Bft) 97,87 %
22.01.2021 20:22 3,3 C 2,8 C 0,6 C 88 % 997,1 hPa 0,0 l/m 0 min 0 min 0 W/m 0,0 km/h (0 Bft) 97,87 %
22.01.2021 20:24 3,3 C 2,8 C 0,6 C 88 % 997,1 hPa 0,0 l/m 0 min 0 min 0 W/m 0,0 km/h (0 Bft) 97,83 %
22.01.2021 20:26 3,3 C 2,8 C 0,6 C 88 % 997,0 hPa 0,0 l/m 0 min 0 min 0 W/m 0,0 km/h (0 Bft) 96,36 %
22.01.2021 20:28 3,3 C 2,8 C 0,6 C 88 % 997,0 hPa 0,0 l/m 0 min 0 min 0 W/m 0,0 km/h (0 Bft) 97,87 %
22.01.2021 20:30 3,3 C 2,8 C 0,6 C 88 % 997,1 hPa 0,0 l/m 0 min 0 min 0 W/m 0,0 km/h (0 Bft) 97,83 %
22.01.2021 20:32 3,3 C 2,8 C 0,6 C 88 % 997,1 hPa 0,0 l/m 0 min 0 min 0 W/m 0,0 km/h (0 Bft) 97,87 %
22.01.2021 20:34 3,3 C 2,8 C 0,6 C 88 % 997,1 hPa 0,0 l/m 0 min 0 min 0 W/m 0,0 km/h (0 Bft) 97,87 %
22.01.2021 20:36 3,3 C 2,8 C 0,6 C 88 % 997,1 hPa 0,0 l/m 0 min 0 min 0 W/m 0,0 km/h (0 Bft) 97,87 %
22.01.2021 20:38 3,3 C 2,8 C 0,6 C 88 % 997,1 hPa 0,0 l/m 0 min 0 min 0 W/m 0,0 km/h (0 Bft) 97,87 %
22.01.2021 20:40 3,3 C 2,8 C 0,6 C 88 % 997,1 hPa 0,0 l/m 0 min 0 min 0 W/m 0,0 km/h (0 Bft) 95,74 %
22.01.2021 20:42 3,3 C 2,8 C 0,6 C 88 % 997,1 hPa 0,0 l/m 0 min 0 min 0 W/m 0,0 km/h (0 Bft) 97,83 %
22.01.2021 20:44 3,3 C 2,8 C 0,6 C 88 % 997,1 hPa 0,0 l/m 0 min 0 min 0 W/m 0,0 km/h (0 Bft) 97,87 %
22.01.2021 20:46 3,3 C 2,8 C 0,6 C 88 % 997,1 hPa 0,0 l/m 0 min 0 min 0 W/m 0,0 km/h (0 Bft) 97,87 %
22.01.2021 20:48 3,2 C 2,8 C 0,6 C 88 % 997,1 hPa 0,0 l/m 0 min 0 min 0 W/m 0,0 km/h (0 Bft) 97,87 %
22.01.2021 20:50 3,3 C 2,8 C 0,6 C 88 % 997,0 hPa 0,0 l/m 0 min 0 min 0 W/m 0,0 km/h (0 Bft) 97,87 %
22.01.2021 20:52 3,2 C 2,8 C 0,6 C 88 % 997,1 hPa 0,0 l/m 0 min 0 min 0 W/m 0,0 km/h (0 Bft) 97,87 %
22.01.2021 20:54 3,3 C 2,8 C 0,6 C 88 % 997,1 hPa 0,0 l/m 0 min 0 min 0 W/m 0,0 km/h (0 Bft) 97,83 %
22.01.2021 20:56 3,3 C 3,3 C 0,6 C 88 % 997,1 hPa 0,0 l/m 0 min 0 min 0 W/m 0,0 km/h (0 Bft) 97,87 %
22.01.2021 20:58 3,3 C 3,3 C 1,2 C 88 % 997,1 hPa 0,0 l/m 0 min 0 min 0 W/m 0,0 km/h (0 Bft) 95,74 %
22.01.2021 21:00 3,3 C 3,3 C 1,2 C 88 % 997,1 hPa 0,0 l/m 0 min 0 min 0 W/m 0,0 km/h (0 Bft) 97,87 %
22.01.2021 21:02 3,3 C 3,3 C 1,2 C 88 % 997,2 hPa 0,0 l/m 0 min 0 min 0 W/m 0,0 km/h (0 Bft) 95,83 %
22.01.2021 21:04 3,3 C 2,8 C 1,2 C 88 % 997,2 hPa 0,0 l/m 0 min 0 min 0 W/m 0,0 km/h (0 Bft) 97,87 %
22.01.2021 21:06 3,3 C 2,8 C 0,6 C 88 % 997,3 hPa 0,0 l/m 0 min 0 min 0 W/m 0,0 km/h (0 Bft) 97,83 %
22.01.2021 21:08 3,3 C 2,8 C 0,6 C 88 % 997,3 hPa 0,0 l/m 0 min 0 min 0 W/m 0,0 km/h (0 Bft) 100,00 %
22.01.2021 21:10 3,3 C 2,8 C 0,6 C 88 % 997,3 hPa 0,0 l/m 0 min 0 min 0 W/m 0,0 km/h (0 Bft) 97,87 %
22.01.2021 21:12 3,3 C 2,8 C 0,6 C 88 % 997,3 hPa 0,0 l/m 0 min 0 min 0 W/m 0,0 km/h (0 Bft) 100,00 %
22.01.2021 21:14 3,3 C 2,8 C 0,6 C 88 % 997,3 hPa 0,0 l/m 0 min 0 min 0 W/m 0,0 km/h (0 Bft) 100,00 %
22.01.2021 21:16 3,3 C 2,2 C 0,6 C 88 % 997,3 hPa 0,0 l/m 0 min 0 min 0 W/m 0,0 km/h (0 Bft) 97,83 %
22.01.2021 21:18 3,3 C 2,2 C 0,6 C 88 % 997,3 hPa 0,0 l/m 0 min 0 min 0 W/m 0,0 km/h (0 Bft) 95,74 %
22.01.2021 21:20 3,3 C 2,2 C 0,6 C 88 % 997,3 hPa 0,0 l/m 0 min 0 min 0 W/m 0,0 km/h (0 Bft) 100,00 %
22.01.2021 21:22 3,2 C 2,2 C 0,6 C 88 % 997,3 hPa 0,0 l/m 0 min 0 min 0 W/m 3,2 km/h (1 Bft) 100,00 %
22.01.2021 21:24 3,2 C 2,2 C 0,6 C 88 % 997,3 hPa 0,0 l/m 0 min 0 min 0 W/m 3,2 km/h (1 Bft) 100,00 %
22.01.2021 21:26 3,1 C 2,2 C 0,6 C 88 % 997,3 hPa 0,0 l/m 0 min 0 min 0 W/m 0,0 km/h (0 Bft) 100,00 %
22.01.2021 21:28 3,1 C 2,2 C 0,6 C 88 % 997,4 hPa 0,0 l/m 0 min 0 min 0 W/m 3,2 km/h (1 Bft) 95,65 %
22.01.2021 21:30 3,1 C 2,2 C 0,6 C 88 % 997,4 hPa 0,0 l/m 0 min 0 min 0 W/m 0,0 km/h (0 Bft) 97,87 %
22.01.2021 21:32 3,1 C 2,2 C 0,0 C 88 % 997,4 hPa 0,0 l/m 0 min 0 min 0 W/m 0,0 km/h (0 Bft) 97,87 %
22.01.2021 21:34 3,0 C 2,2 C 0,0 C 88 % 997,5 hPa 0,0 l/m 0 min 0 min 0 W/m 0,0 km/h (0 Bft) 97,87 %
22.01.2021 21:36 3,0 C 2,2 C 0,0 C 88 % 997,5 hPa 0,0 l/m 0 min 0 min 0 W/m 0,0 km/h (0 Bft) 97,87 %
22.01.2021 21:38 3,0 C 2,2 C 0,0 C 88 % 997,4 hPa 0,0 l/m 0 min 0 min 0 W/m 0,0 km/h (0 Bft) 95,74 %
22.01.2021 21:40 3,0 C 2,2 C 0,0 C 88 % 997,5 hPa 0,0 l/m 0 min 0 min 0 W/m 0,0 km/h (0 Bft) 97,83 %
22.01.2021 21:42 2,9 C 1,7 C 0,0 C 89 % 997,4 hPa 0,0 l/m 0 min 0 min 0 W/m 0,0 km/h (0 Bft) 97,87 %
22.01.2021 21:44 2,9 C 1,7 C 0,0 C 89 % 997,4 hPa 0,0 l/m 0 min 0 min 0 W/m 0,0 km/h (0 Bft) 97,87 %
22.01.2021 21:46 2,9 C 1,7 C 0,0 C 89 % 997,5 hPa 0,0 l/m 0 min 0 min 0 W/m 0,0 km/h (0 Bft) 95,74 %
22.01.2021 21:48 2,9 C 1,7 C 0,0 C 89 % 997,5 hPa 0,0 l/m 0 min 0 min 0 W/m 0,0 km/h (0 Bft) 97,87 %
22.01.2021 21:50 2,8 C 1,7 C 0,0 C 89 % 997,5 hPa 0,0 l/m 0 min 0 min 0 W/m 0,0 km/h (0 Bft) 97,87 %
22.01.2021 21:52 2,8 C 1,7 C 0,0 C 89 % 997,5 hPa 0,0 l/m 0 min 0 min 0 W/m 0,0 km/h (0 Bft) 97,83 %
22.01.2021 21:54 2,8 C 1,7 C 0,0 C 89 % 997,5 hPa 0,0 l/m 0 min 0 min 0 W/m 0,0 km/h (0 Bft) 95,74 %
22.01.2021 21:56 2,8 C 1,7 C 0,0 C 89 % 997,5 hPa 0,0 l/m 0 min 0 min 0 W/m 0,0 km/h (0 Bft) 97,87 %
22.01.2021 21:58 2,7 C 1,7 C 0,0 C 89 % 997,5 hPa 0,0 l/m 0 min 0 min 0 W/m 0,0 km/h (0 Bft) 95,74 %
22.01.2021 22:00 2,7 C 1,7 C 0,0 C 89 % 997,5 hPa 0,0 l/m 0 min 0 min 0 W/m 0,0 km/h (0 Bft) 93,62 %
22.01.2021 22:02 2,6 C 1,7 C 0,0 C 89 % 997,5 hPa 0,0 l/m 0 min 0 min 0 W/m 0,0 km/h (0 Bft) 93,62 %
22.01.2021 22:04 2,6 C 1,7 C 0,0 C 89 % 997,5 hPa 0,0 l/m 0 min 0 min 0 W/m 0,0 km/h (0 Bft) 95,65 %
22.01.2021 22:06 2,6 C 1,7 C 0,0 C 89 % 997,5 hPa 0,0 l/m 0 min 0 min 0 W/m 0,0 km/h (0 Bft) 93,62 %
22.01.2021 22:08 2,6 C 1,7 C 0,0 C 89 % 997,6 hPa 0,0 l/m 0 min 0 min 0 W/m 0,0 km/h (0 Bft) 97,87 %
22.01.2021 22:10 2,6 C 1,7 C 0,0 C 89 % 997,6 hPa 0,0 l/m 0 min 0 min 0 W/m 0,0 km/h (0 Bft) 95,74 %
22.01.2021 22:12 2,5 C 1,7 C 0,0 C 89 % 997,6 hPa 0,0 l/m 0 min 0 min 0 W/m 0,0 km/h (0 Bft) 97,87 %
22.01.2021 22:14 2,5 C 1,7 C 0,0 C 89 % 997,6 hPa 0,0 l/m 0 min 0 min 0 W/m 0,0 km/h (0 Bft) 97,87 %
22.01.2021 22:16 2,5 C 1,7 C 0,0 C 90 % 997,6 hPa 0,0 l/m 0 min 0 min 0 W/m 0,0 km/h (0 Bft) 97,83 %
22.01.2021 22:18 2,5 C 1,7 C 0,0 C 90 % 997,6 hPa 0,0 l/m 0 min 0 min 0 W/m 0,0 km/h (0 Bft) 100,00 %
22.01.2021 22:20 2,5 C 1,7 C 0,0 C 90 % 997,6 hPa 0,0 l/m 0 min 0 min 0 W/m 0,0 km/h (0 Bft) 95,74 %
22.01.2021 22:22 2,5 C 1,7 C 0,0 C 90 % 997,6 hPa 0,0 l/m 0 min 0 min 0 W/m 0,0 km/h (0 Bft) 97,87 %
22.01.2021 22:24 2,5 C 1,7 C 0,0 C 90 % 997,6 hPa 0,0 l/m 0 min 0 min 0 W/m 0,0 km/h (0 Bft) 97,87 %
22.01.2021 22:26 2,4 C 1,7 C 0,0 C 90 % 997,5 hPa 0,0 l/m 0 min 0 min 0 W/m 0,0 km/h (0 Bft) 95,74 %
22.01.2021 22:28 2,4 C 1,7 C 0,0 C 90 % 997,6 hPa 0,0 l/m 0 min 0 min 0 W/m 0,0 km/h (0 Bft) 97,37 %
22.01.2021 22:30 2,4 C 1,7 C 0,0 C 90 % 997,6 hPa 0,0 l/m 0 min 0 min 0 W/m 0,0 km/h (0 Bft) 97,87 %
22.01.2021 22:32 2,4 C 1,7 C 0,0 C 90 % 997,6 hPa 0,0 l/m 0 min 0 min 0 W/m 0,0 km/h (0 Bft) 95,74 %
22.01.2021 22:34 2,4 C 2,2 C 0,0 C 90 % 997,6 hPa 0,0 l/m 0 min 0 min 0 W/m 0,0 km/h (0 Bft) 97,83 %
22.01.2021 22:36 2,4 C 2,2 C 0,0 C 90 % 997,6 hPa 0,0 l/m 0 min 0 min 0 W/m 0,0 km/h (0 Bft) 97,87 %
22.01.2021 22:38 2,4 C 1,7 C 0,0 C 90 % 997,6 hPa 0,0 l/m 0 min 0 min 0 W/m 0,0 km/h (0 Bft) 97,87 %
22.01.2021 22:40 2,4 C 2,2 C 0,0 C 90 % 997,5 hPa 0,0 l/m 0 min 0 min 0 W/m 0,0 km/h (0 Bft) 97,87 %
22.01.2021 22:42 2,4 C 2,2 C 0,0 C 90 % 997,5 hPa 0,0 l/m 0 min 0 min 0 W/m 0,0 km/h (0 Bft) 97,87 %
22.01.2021 22:44 2,4 C 1,7 C 0,0 C 90 % 997,5 hPa 0,0 l/m 0 min 0 min 0 W/m 0,0 km/h (0 Bft) 97,87 %
22.01.2021 22:46 2,4 C 2,2 C 0,0 C 90 % 997,6 hPa 0,0 l/m 0 min 0 min 0 W/m 0,0 km/h (0 Bft) 97,83 %
22.01.2021 22:48 2,4 C 2,2 C 0,0 C 90 % 997,6 hPa 0,0 l/m 0 min 0 min 0 W/m 0,0 km/h (0 Bft) 97,87 %
22.01.2021 22:50 2,4 C 1,7 C 0,0 C 90 % 997,6 hPa 0,0 l/m 0 min 0 min 0 W/m 0,0 km/h (0 Bft) 97,87 %
22.01.2021 22:52 2,4 C 1,7 C 0,0 C 90 % 997,6 hPa 0,0 l/m 0 min 0 min 0 W/m 0,0 km/h (0 Bft) 97,87 %
22.01.2021 22:54 2,4 C 1,7 C 0,0 C 90 % 997,6 hPa 0,0 l/m 0 min 0 min 0 W/m 0,0 km/h (0 Bft) 97,87 %
22.01.2021 22:56 2,4 C 1,7 C 0,0 C 90 % 997,6 hPa 0,0 l/m 0 min 0 min 0 W/m 0,0 km/h (0 Bft) 93,62 %
22.01.2021 22:58 2,4 C 1,7 C 0,0 C 90 % 997,6 hPa 0,0 l/m 0 min 0 min 0 W/m 0,0 km/h (0 Bft) 53,66 %
22.01.2021 23:00 2,4 C 1,7 C 0,0 C 90 % 997,6 hPa 0,0 l/m 0 min 0 min 0 W/m 0,0 km/h (0 Bft) 97,87 %
22.01.2021 23:02 2,4 C 1,7 C 0,0 C 90 % 997,6 hPa 0,0 l/m 0 min 0 min 0 W/m 0,0 km/h (0 Bft) 98,15 %
22.01.2021 23:04 2,4 C 1,7 C 0,0 C 90 % 997,6 hPa 0,0 l/m 0 min 0 min 0 W/m 0,0 km/h (0 Bft) 97,83 %
22.01.2021 23:06 2,4 C 1,7 C 0,0 C 90 % 997,6 hPa 0,0 l/m 0 min 0 min 0 W/m 0,0 km/h (0 Bft) 97,87 %
22.01.2021 23:08 2,4 C 1,7 C 0,0 C 90 % 997,6 hPa 0,0 l/m 0 min 0 min 0 W/m 0,0 km/h (0 Bft) 97,87 %
22.01.2021 23:10 2,4 C 1,7 C 0,0 C 90 % 997,6 hPa 0,0 l/m 0 min 0 min 0 W/m 0,0 km/h (0 Bft) 97,87 %
22.01.2021 23:12 2,3 C 1,7 C 0,0 C 90 % 997,6 hPa 0,0 l/m 0 min 0 min 0 W/m 0,0 km/h (0 Bft) 97,87 %
22.01.2021 23:14 2,3 C 1,7 C 0,0 C 90 % 997,6 hPa 0,0 l/m 0 min 0 min 0 W/m 0,0 km/h (0 Bft) 97,83 %
22.01.2021 23:16 2,3 C 1,7 C 0,0 C 90 % 997,6 hPa 0,0 l/m 0 min 0 min 0 W/m 0,0 km/h (0 Bft) 95,74 %
22.01.2021 23:18 2,3 C 1,7 C 0,0 C 90 % 997,6 hPa 0,0 l/m 0 min 0 min 0 W/m 0,0 km/h (0 Bft) 93,62 %
22.01.2021 23:20 2,3 C 1,1 C 0,0 C 90 % 997,6 hPa 0,0 l/m 0 min 0 min 0 W/m 0,0 km/h (0 Bft) 95,74 %
22.01.2021 23:22 2,3 C 1,1 C 0,0 C 90 % 997,6 hPa 0,0 l/m 0 min 0 min 0 W/m 0,0 km/h (0 Bft) 95,74 %
22.01.2021 23:24 2,3 C 1,1 C -0,5 C 90 % 997,6 hPa 0,0 l/m 0 min 0 min 0 W/m 0,0 km/h (0 Bft) 95,74 %
22.01.2021 23:26 2,3 C 1,1 C -0,5 C 91 % 997,6 hPa 0,0 l/m 0 min 0 min 0 W/m 0,0 km/h (0 Bft) 95,65 %
22.01.2021 23:28 2,2 C 1,1 C -0,5 C 91 % 997,6 hPa 0,0 l/m 0 min 0 min 0 W/m 0,0 km/h (0 Bft) 97,87 %
22.01.2021 23:30 2,2 C 1,1 C -0,5 C 90 % 997,6 hPa 0,0 l/m 0 min 0 min 0 W/m 0,0 km/h (0 Bft) 95,12 %
22.01.2021 23:32 2,2 C 1,1 C -0,5 C 91 % 997,6 hPa 0,0 l/m 0 min 0 min 0 W/m 0,0 km/h (0 Bft) 95,65 %
22.01.2021 23:34 2,1 C 1,1 C -0,5 C 90 % 997,5 hPa 0,0 l/m 0 min 0 min 0 W/m 0,0 km/h (0 Bft) 95,74 %
22.01.2021 23:36 2,1 C 1,1 C -0,5 C 91 % 997,5 hPa 0,0 l/m 0 min 0 min 0 W/m 0,0 km/h (0 Bft) 91,49 %
22.01.2021 23:38 2,1 C 1,1 C -0,5 C 91 % 997,5 hPa 0,0 l/m 0 min 0 min 0 W/m 0,0 km/h (0 Bft) 95,74 %
22.01.2021 23:40 2,1 C 1,1 C -0,5 C 91 % 997,5 hPa 0,0 l/m 0 min 0 min 0 W/m 0,0 km/h (0 Bft) 95,74 %
22.01.2021 23:42 2,1 C 1,1 C -0,5 C 90 % 997,5 hPa 0,0 l/m 0 min 0 min 0 W/m 0,0 km/h (0 Bft) 95,74 %
22.01.2021 23:44 2,0 C 1,1 C -0,5 C 90 % 997,5 hPa 0,0 l/m 0 min 0 min 0 W/m 0,0 km/h (0 Bft) 91,30 %
22.01.2021 23:46 2,0 C 1,1 C -0,5 C 90 % 997,5 hPa 0,0 l/m 0 min 0 min 0 W/m 0,0 km/h (0 Bft) 91,49 %
22.01.2021 23:48 2,0 C 1,1 C -0,5 C 91 % 997,5 hPa 0,0 l/m 0 min 0 min 0 W/m 0,0 km/h (0 Bft) 93,62 %
22.01.2021 23:50 2,0 C 1,1 C -0,5 C 91 % 997,5 hPa 0,0 l/m 0 min 0 min 0 W/m 0,0 km/h (0 Bft) 95,74 %
22.01.2021 23:52 1,9 C 1,1 C -0,5 C 91 % 997,5 hPa 0,0 l/m 0 min 0 min 0 W/m 0,0 km/h (0 Bft) 93,62 %
22.01.2021 23:54 1,9 C 1,1 C -0,5 C 91 % 997,6 hPa 0,0 l/m 0 min 0 min 0 W/m 0,0 km/h (0 Bft) 93,62 %
22.01.2021 23:56 1,9 C 1,1 C -0,5 C 91 % 997,6 hPa 0,0 l/m 0 min 0 min 0 W/m 0,0 km/h (0 Bft) 93,48 %
22.01.2021 23:58 1,9 C 1,1 C -0,5 C 91 % 997,6 hPa 0,0 l/m 0 min 0 min 0 W/m 0,0 km/h (0 Bft) 93,62 %
_ Min-Zeit 23:52 23:20 19:20 15:38 02:20 - - - - 00:12 22:58
Minimum _ 1,9 C 1,1 C -1,1 C 74 % 983,6 hPa - - - - 0,0 km/h (0 Bft) 53,66 %
_ Max-Zeit 00:26 13:56 13:56 05:22 22:08 00:54 12:30 00:50 13:06 02:32 00:00
Maximum _ 10,2 C 12,8 C 12,3 C 96 % 997,6 hPa 0,2 l/m 2 min 2 min 470 W/m 54,7 km/h
S (7 Bft)
100,00 %
Durchschnitt _ 5,4 C 4,9 C 3,2 C 88 % 992,7 hPa #2,6 l/m #3:34 h #3:00 h 145 W/m 3,3 km/h (1 Bft) 97,08 %
© 2021 W. Hausmann